GFSSW_sfc_temp_120.txt.gz
Temp
59 59 59 59 58 58 58 58 58 57 58 58 58 58 58 58 58 71 71 73 73 66 64 78 78 79 81 79 80 80 68 66 70 70 75 78 75 81 83 80 81 84 84 87 89
58 58 58 58 58 58 58 57 57 57 58 58 58 58 58 57 63 67 73 66 65 66 76 75 74 76 75 75 76 72 68 69 78 78 76 76 76 78 76 78 79 81 86 88 89
58 58 58 58 57 57 57 57 56 57 57 57 57 58 57 60 63 73 67 66 65 67 78 80 79 76 71 75 73 71 66 75 73 76 79 76 76 81 76 75 80 80 83 86 85
57 57 57 57 57 57 56 56 56 57 57 57 57 58 57 63 60 76 66 67 66 76 75 74 74 69 67 66 73 64 71 72 74 76 75 73 78 75 77 79 85 85 85 85 83
56 56 56 56 56 56 56 56 56 56 56 57 57 57 61 61 67 77 67 70 76 75 74 73 69 69 65 69 71 65 69 73 73 74 74 76 73 73 76 82 83 85 83 81 83
56 55 55 55 56 56 55 55 55 55 56 57 58 57 60 56 77 75 72 74 76 75 75 75 73 75 70 69 67 72 69 70 73 72 73 69 71 74 77 81 79 79 80 82 82
55 55 55 55 55 55 55 55 54 55 56 57 58 61 58 64 76 77 74 74 77 75 71 77 78 71 71 66 73 71 64 69 71 72 71 74 67 68 78 80 78 77 78 79 81
55 55 54 54 54 54 54 54 54 55 57 57 58 61 58 72 77 73 74 74 74 75 75 76 76 71 70 73 68 63 65 59 70 72 72 71 62 73 78 75 75 75 78 79 81
55 54 54 54 53 53 53 54 55 56 57 57 59 57 58 69 68 75 74 69 73 71 72 74 71 66 68 60 58 62 55 60 63 70 71 68 65 73 77 73 74 76 78 80 80
54 54 54 53 53 53 53 53 56 58 61 63 63 55 63 61 67 69 75 73 68 68 64 64 65 60 60 59 47 53 55 57 59 68 68 66 66 73 74 74 74 74 75 76 77
53 53 53 53 53 53 58 65 61 61 59 52 53 52 58 65 68 67 71 68 69 65 58 62 55 52 58 60 60 59 58 56 63 66 63 63 65 69 73 73 71 72 75 77 78
53 53 53 53 53 53 61 53 47 50 46 53 53 53 59 60 55 66 68 58 60 56 62 58 51 61 64 62 57 56 54 55 61 64 59 61 62 69 71 71 74 74 75 76 76
53 53 52 52 52 56 55 50 56 54 46 53 56 56 61 59 56 62 65 62 57 55 57 53 58 62 59 55 53 54 52 53 53 59 60 58 57 63 70 73 73 73 75 73 74
52 52 52 51 54 55 54 56 58 54 47 49 53 57 63 65 55 68 70 61 58 52 56 56 62 58 55 52 55 48 59 56 52 49 46 61 47 59 64 65 68 70 70 72 73
52 52 51 50 53 55 53 56 56 51 36 50 52 65 64 56 58 61 70 62 53 53 54 51 53 53 50 54 56 52 58 52 51 51 51 54 49 58 62 61 64 68 68 69 70
51 51 50 53 55 55 56 55 53 44 33 43 50 48 51 53 55 59 61 65 63 54 56 54 62 56 55 57 57 59 53 52 52 51 41 51 51 55 58 62 63 66 66 67 69
51 50 52 55 50 55 54 54 44 38 48 39 40 47 47 45 48 50 50 51 47 42 46 52 54 58 57 51 54 53 46 38 34 37 38 56 50 54 63 63 64 62 64 66 69
50 48 48 54 55 54 54 49 33 37 37 44 43 45 40 43 45 46 46 46 51 48 45 42 40 50 54 49 47 47 47 38 28 35 42 52 44 52 61 63 63 63 63 65 67
48 54 53 53 54 54 51 42 36 36 39 38 42 38 38 42 41 42 43 43 48 49 39 40 42 54 54 53 52 45 40 53 42 44 39 47 50 55 59 59 61 62 64 64 66
52 51 50 53 54 52 48 34 37 41 41 40 33 37 33 38 37 39 40 47 45 49 51 45 36 50 49 51 53 48 53 41 43 31 32 44 46 48 52 55 59 61 62 64 67
49 46 51 54 53 49 36 36 37 43 43 37 35 35 37 35 37 37 37 45 48 47 51 49 42 43 50 40 35 39 42 42 44 44 35 36 44 59 55 56 56 59 61 64 66
47 36 51 53 41 43 39 37 38 40 43 40 40 38 36 38 36 37 36 42 50 48 42 49 43 36 42 51 49 45 36 36 34 36 44 43 43 60 58 57 59 59 62 63 66
40 45 53 49 33 35 36 36 38 38 39 38 37 41 42 37 31 38 39 47 49 46 42 45 40 32 38 44 44 37 44 43 38 38 38 36 43 60 60 60 63 61 62 63 64
40 33 44 45 46 37 29 31 33 41 39 40 39 42 38 36 40 35 38 44 47 46 45 45 41 36 31 31 39 36 36 42 41 34 37 43 47 53 56 58 60 61 62 63 64
38 35 40 32 36 37 37 35 28 32 39 42 38 38 36 30 35 35 40 40 45 46 47 45 36 40 41 43 43 39 38 41 39 42 37 43 46 52 56 58 59 60 61 62 62
34 38 41 40 37 36 34 34 32 35 33 33 33 34 36 31 30 29 35 37 38 45 43 46 35 39 36 42 42 38 42 43 44 44 45 46 45 58 60 60 58 59 60 60 62
45 46 43 34 35 36 35 33 33 35 39 39 33 33 36 38 42 43 44 43 41 39 39 39 37 35 30 39 39 32 40 42 44 48 46 40 49 57 55 56 57 58 60 60 60

GFSSW_sfc_temp_123.txt.gz
Temp
59 59 59 59 58 58 58 58 57 57 58 58 58 58 59 58 58 76 76 77 76 67 66 84 84 84 85 82 86 87 71 69 74 76 80 89 81 88 92 89 87 89 90 93 94
58 58 58 58 58 58 58 57 57 57 58 58 58 58 58 58 66 74 74 68 67 67 78 79 78 82 79 79 82 77 70 72 82 84 83 85 80 85 82 81 84 85 90 92 93
58 58 58 58 57 57 57 57 56 57 57 58 58 58 58 60 69 79 67 68 66 69 80 85 83 81 75 80 79 77 68 78 82 85 85 83 83 85 82 79 84 84 88 91 91
56 57 57 57 57 57 56 56 56 57 57 57 58 58 58 68 63 81 68 69 67 78 80 79 79 74 72 71 80 72 77 78 80 83 80 78 83 80 82 82 89 90 92 91 89
56 56 56 56 56 56 56 56 56 56 56 57 58 58 62 67 72 79 70 72 80 79 77 77 74 74 70 74 76 73 75 78 80 79 78 80 77 78 80 87 89 89 88 87 87
56 56 56 56 56 56 55 55 55 55 56 57 58 58 63 61 83 83 80 80 82 80 78 79 76 79 74 74 73 77 76 76 77 77 78 73 74 77 80 85 84 84 84 85 86
55 55 55 55 55 55 55 55 55 55 56 57 59 64 65 67 83 85 82 80 81 80 76 81 81 76 75 70 77 75 69 73 74 76 75 77 70 72 81 84 82 83 83 84 86
55 55 54 54 54 54 54 54 54 55 57 58 58 67 62 80 83 79 81 80 81 81 78 80 81 76 73 75 72 67 68 61 72 75 77 75 63 77 85 83 81 82 83 82 84
55 54 54 54 53 53 54 54 55 57 58 58 64 64 62 70 74 80 80 74 78 79 78 79 76 69 70 63 60 64 56 61 66 77 76 73 67 78 84 81 79 81 81 83 84
54 54 54 53 53 53 53 53 58 57 62 70 71 60 68 64 72 74 81 76 72 73 70 68 68 63 64 61 50 54 56 61 61 69 72 68 69 76 81 79 78 80 81 82 82
54 54 53 53 53 53 58 72 66 62 67 59 60 60 65 71 76 74 76 72 72 69 61 67 59 55 62 64 63 61 59 57 64 70 67 67 68 72 78 80 76 79 80 81 82
53 53 53 53 53 53 65 61 55 56 55 62 62 62 69 68 64 72 78 66 64 59 65 62 56 63 67 66 63 62 57 57 62 67 64 62 63 69 74 77 77 78 79 80 82
53 53 53 52 53 58 61 57 63 62 54 59 63 63 66 70 62 66 72 67 62 59 60 57 62 68 63 61 59 60 56 56 55 61 64 62 58 62 70 75 78 79 80 82 80
52 52 52 51 51 64 60 63 64 60 52 53 58 62 67 69 60 73 74 67 62 57 59 58 65 63 61 57 60 53 62 59 56 53 47 61 46 60 66 70 73 76 76 77 78
52 52 52 52 60 63 59 63 63 58 39 54 57 70 68 59 62 65 73 67 57 58 59 54 58 58 55 58 62 55 62 58 56 51 52 54 51 58 66 64 67 71 74 76 76
51 51 51 59 62 61 63 61 58 47 36 48 55 53 55 60 59 63 63 69 67 59 60 58 66 62 60 62 62 62 57 56 54 49 39 49 51 54 59 64 68 71 73 73 74
51 50 54 63 58 62 61 58 47 42 53 45 46 52 52 51 53 55 53 54 52 45 46 56 58 64 65 56 61 58 49 35 33 33 35 53 50 54 64 69 71 69 69 70 72
50 49 53 62 63 61 60 52 39 44 44 51 49 50 46 49 49 50 50 49 56 54 47 43 42 55 58 56 52 53 50 36 28 33 40 53 44 55 67 69 70 71 70 70 71
50 58 61 58 60 60 55 47 41 42 45 44 47 44 45 48 47 48 48 47 52 54 42 41 43 58 56 56 56 50 43 53 41 44 38 47 54 59 64 63 65 67 68 67 68
58 57 56 59 59 57 53 39 44 47 47 46 38 43 38 43 42 44 44 51 49 53 55 46 37 52 55 55 55 45 54 37 37 27 29 43 45 48 55 58 63 64 65 67 69
54 52 56 60 58 57 44 43 44 48 47 42 41 40 42 40 43 42 42 49 52 50 53 50 44 44 52 47 44 41 40 46 44 39 35 34 42 59 57 59 60 63 64 67 68
53 41 56 58 49 53 46 44 39 45 48 44 44 43 41 42 40 40 40 46 53 51 44 49 41 36 42 53 53 47 42 34 33 36 42 42 42 57 61 63 63 62 64 67 68
48 51 59 55 39 42 43 42 44 43 44 43 42 45 46 41 36 42 43 51 52 49 45 45 40 31 37 48 49 40 41 41 38 35 31 34 38 57 58 62 65 63 65 67 67
47 37 51 54 53 44 37 38 38 45 43 45 44 46 42 39 44 38 41 47 49 49 48 47 40 36 31 37 35 37 36 42 40 33 36 35 38 43 45 58 63 64 66 67 67
42 43 47 37 43 44 43 40 36 36 44 46 42 41 38 33 37 37 39 42 48 49 49 46 35 39 42 46 46 45 43 42 38 39 35 44 44 45 56 60 63 64 64 65 66
37 45 49 46 44 42 36 39 38 40 36 37 37 40 41 36 34 31 39 40 38 44 44 47 32 39 36 43 45 42 45 45 45 43 44 46 47 60 63 64 62 63 63 63 64
54 53 52 40 42 41 41 39 38 38 43 44 40 38 39 43 46 47 48 47 46 42 40 40 38 35 30 41 40 34 43 46 47 49 46 40 50 59 58 59 60 61 62 62 64

GFSSW_sfc_temp_126.txt.gz
Temp
59 59 59 59 58 58 58 58 57 57 58 58 59 59 59 58 58 70 71 75 76 69 68 81 82 81 83 79 83 84 67 64 67 70 75 86 84 89 91 86 90 89 88 91 92
58 58 58 58 58 58 57 57 57 57 57 58 58 58 58 58 61 68 71 68 68 68 76 75 75 80 75 76 77 73 66 67 76 79 79 84 85 84 83 82 84 85 90 92 92
58 58 58 58 58 57 57 57 56 57 57 57 58 58 58 59 64 72 67 68 67 68 78 79 81 79 73 76 75 74 66 74 77 81 84 82 82 87 81 77 82 82 85 88 89
57 57 57 57 57 57 56 56 56 57 57 57 58 58 58 63 60 77 69 69 68 76 79 78 77 71 69 69 76 68 75 77 78 80 79 77 82 80 81 81 88 88 89 89 87
56 56 56 56 56 56 56 55 56 56 56 57 57 58 61 65 69 75 70 71 79 79 75 75 72 72 67 71 73 70 73 77 79 80 79 80 75 76 78 84 88 89 87 85 85
56 56 56 56 56 56 55 55 55 56 56 57 57 57 61 57 84 86 82 81 81 80 78 77 73 77 72 71 70 74 75 75 78 77 78 73 74 75 77 83 83 84 83 84 84
56 55 55 55 55 55 55 55 55 55 56 57 58 62 62 64 83 84 82 80 81 79 74 78 79 73 73 67 75 73 66 71 73 75 74 77 69 70 79 81 79 81 82 83 84
55 55 55 54 54 54 54 54 55 56 57 59 59 64 58 80 83 80 83 79 82 82 78 79 78 72 69 72 69 64 65 58 69 73 74 73 60 73 80 79 78 80 81 82 83
55 54 54 54 54 53 54 54 55 57 58 59 59 63 63 74 74 79 80 73 76 77 78 81 74 67 67 60 56 60 52 56 62 73 72 70 64 74 80 79 78 81 81 82 82
54 54 54 54 53 53 53 54 61 57 59 69 71 61 69 65 73 76 81 78 72 72 70 70 66 59 60 56 46 52 54 58 58 67 69 66 65 72 77 77 77 79 80 80 80
54 54 54 53 53 53 56 68 62 60 68 61 63 63 67 73 78 76 79 76 73 68 59 66 58 52 58 61 61 59 57 55 62 68 64 58 60 67 73 75 73 76 77 78 80
53 53 53 53 53 54 61 61 56 57 52 65 65 65 71 72 65 72 79 67 64 58 64 60 53 63 65 64 61 59 56 56 62 66 62 60 58 64 68 70 72 71 75 77 79
53 53 53 52 52 56 62 59 66 64 51 61 66 65 66 70 64 65 72 67 61 58 59 55 59 66 64 62 58 57 55 56 55 62 64 58 54 59 67 70 72 72 75 79 77
52 52 52 52 52 64 61 65 66 62 46 53 58 64 68 69 61 72 74 65 61 55 58 58 63 61 59 57 60 52 61 59 57 54 46 59 42 55 61 63 68 70 72 74 76
52 52 52 52 56 62 61 65 65 57 36 57 59 71 68 61 63 64 73 65 55 56 57 52 56 56 54 57 61 54 62 58 56 52 50 51 46 52 60 59 64 68 72 73 74
52 52 52 57 60 63 64 63 59 41 35 50 58 55 56 60 60 64 63 67 66 57 58 56 64 61 58 61 62 63 57 55 55 50 38 47 46 47 54 60 65 70 71 72 72
51 51 52 61 57 64 62 56 42 38 55 48 49 54 52 52 54 55 53 52 50 44 45 54 54 60 63 56 59 58 50 38 32 33 33 49 45 48 60 64 67 68 70 70 71
51 50 56 63 63 61 57 48 36 47 47 54 51 51 48 51 51 51 50 48 54 52 46 41 38 54 58 53 48 50 43 37 28 30 37 50 39 49 64 67 69 72 69 70 69
50 56 58 60 61 59 51 41 41 45 48 46 49 46 47 51 50 48 48 46 51 52 40 38 39 54 56 57 54 45 41 50 38 43 36 40 50 59 63 65 65 66 67 67 68
54 58 57 61 61 55 46 41 46 50 49 48 39 45 39 43 43 44 45 51 49 53 54 45 34 49 52 56 55 49 52 36 37 26 27 38 42 44 53 59 62 62 64 66 67
51 51 56 61 58 50 41 44 47 51 49 44 43 41 42 40 43 42 43 49 52 49 51 48 41 39 47 45 44 43 39 43 40 35 31 31 40 57 50 49 57 61 64 65 66
52 41 57 59 47 51 46 47 41 48 50 47 46 44 42 42 40 40 40 45 52 50 42 48 40 32 39 51 53 49 35 35 28 28 34 37 39 57 57 53 52 62 64 65 67
48 50 58 54 39 42 45 45 47 46 47 45 43 46 46 41 35 41 42 48 50 44 44 45 33 24 32 43 48 38 41 42 36 34 29 27 37 54 55 54 60 61 64 65 66
49 38 50 53 54 46 41 41 41 47 45 46 45 47 43 39 44 38 39 45 47 41 44 45 39 34 27 34 35 35 40 44 37 29 32 34 36 39 42 46 50 56 64 64 65
43 44 50 38 43 45 45 43 38 38 46 48 44 43 40 33 37 37 41 43 47 48 42 41 33 38 40 42 44 43 42 43 40 38 32 37 37 38 37 42 49 54 63 64 64
37 45 50 47 47 44 38 41 40 43 41 39 39 41 42 36 36 34 39 39 39 45 39 41 28 30 30 41 43 39 43 45 45 45 43 42 40 52 54 54 56 61 62 61 62
54 55 51 43 44 42 42 42 41 41 44 46 42 40 41 43 46 47 47 46 45 42 41 40 37 33 28 39 38 32 41 44 46 48 46 38 45 53 53 54 53 55 57 58 61

GFSSW_sfc_temp_129.txt.gz
Temp
59 59 59 58 58 58 58 58 57 57 58 58 58 58 59 58 57 61 57 66 66 69 67 72 72 71 69 64 67 66 55 51 54 58 63 74 75 80 79 74 77 80 79 79 82
59 58 58 58 58 58 58 57 57 57 57 58 58 58 58 57 55 58 68 68 68 68 68 68 66 68 60 61 62 58 53 55 64 66 67 74 75 72 75 74 74 75 81 80 81
58 58 58 58 58 57 57 57 56 57 57 57 58 58 58 57 56 66 67 67 67 66 69 70 71 68 60 62 62 60 55 63 67 71 73 71 71 73 69 65 73 72 75 79 76
57 57 57 57 57 57 57 56 56 57 57 57 58 58 57 55 51 63 68 68 68 68 70 68 67 60 56 56 62 58 65 67 68 72 72 70 69 69 61 69 76 77 76 77 78
56 56 57 57 57 57 56 56 56 56 57 57 57 58 54 54 59 72 69 69 69 70 68 67 64 62 57 60 62 61 64 68 71 71 71 72 69 68 70 72 77 77 78 74 75
56 56 56 56 56 56 56 55 55 56 56 57 57 57 51 49 75 76 73 75 74 71 68 68 66 67 62 62 59 64 65 65 67 67 69 68 68 64 71 72 75 77 74 74 74
56 56 55 55 55 55 55 55 55 55 56 57 58 58 54 55 73 71 75 73 72 72 67 69 68 60 61 57 65 63 56 61 64 65 65 66 62 63 69 72 74 74 76 77 74
56 55 55 55 54 54 54 54 54 55 57 58 59 57 50 74 69 73 73 72 75 74 70 71 70 63 57 61 60 56 54 47 60 63 66 65 54 66 70 71 71 74 75 76 77
55 55 54 54 54 54 53 54 54 56 57 58 54 52 54 72 70 72 71 69 71 71 69 76 67 57 57 48 44 48 41 46 53 64 63 62 57 67 70 71 71 72 74 75 76
55 54 54 54 53 53 53 54 57 56 57 63 63 50 63 63 69 71 72 73 67 66 64 60 55 48 46 41 35 40 42 49 49 56 60 59 59 60 64 66 63 65 70 71 75
54 54 54 53 53 53 51 52 52 49 54 55 58 60 64 69 73 70 73 70 67 61 50 56 45 40 46 49 52 51 48 46 53 59 55 55 52 55 59 63 62 65 68 68 69
53 53 53 53 53 53 52 51 52 50 43 62 64 63 67 68 60 66 71 59 56 49 55 50 43 53 58 57 54 52 48 47 53 57 55 54 56 54 57 64 65 65 65 66 69
53 53 53 53 52 50 51 53 59 56 41 57 63 63 64 66 59 60 65 59 52 49 50 44 51 60 58 54 52 51 48 47 48 53 55 53 49 50 57 64 67 69 71 70 69
52 52 52 52 49 53 50 57 56 54 35 50 56 61 64 63 56 67 66 58 52 47 50 48 56 54 51 50 53 45 54 53 50 46 39 47 36 49 52 56 62 65 68 67 69
52 52 52 51 44 49 53 56 54 47 25 53 56 66 62 56 57 59 64 58 48 49 48 44 48 48 46 50 54 47 55 51 49 43 41 44 39 46 52 52 57 63 66 69 68
52 52 52 51 46 52 55 52 48 33 27 48 57 54 52 55 56 58 57 60 59 51 51 48 55 52 50 55 54 56 51 50 46 41 33 42 38 40 46 52 57 62 66 70 68
51 51 49 54 46 53 51 45 32 27 53 45 48 52 49 47 51 52 49 46 40 35 37 45 47 51 56 46 51 48 40 30 29 28 29 44 39 43 51 56 59 61 61 63 65
51 50 51 54 53 51 47 37 26 46 45 51 49 48 43 48 48 48 44 40 48 44 36 33 30 44 51 46 42 41 38 28 22 25 30 43 35 43 54 59 63 64 63 64 62
50 44 46 48 52 49 40 29 31 42 47 44 45 41 43 47 44 43 41 41 45 46 34 32 34 48 50 50 47 41 34 40 31 33 28 34 41 50 56 57 60 62 63 58 57
43 44 46 51 52 44 35 38 42 49 48 47 37 44 35 39 38 39 39 46 44 48 46 39 28 43 47 47 48 43 44 29 32 22 22 31 33 35 48 49 49 53 57 58 57
41 39 46 53 49 39 30 36 46 50 48 42 39 37 39 37 38 36 38 44 45 43 45 41 35 34 42 38 36 38 35 35 34 32 26 24 28 41 39 45 46 48 53 57 57
42 33 47 50 35 38 33 44 44 48 49 46 45 42 38 38 35 36 36 39 46 44 36 41 34 26 31 42 46 44 35 33 26 25 27 27 28 42 40 45 47 46 55 55 61
39 39 49 46 29 29 41 43 47 45 45 44 41 44 43 37 30 37 38 45 46 41 37 40 30 21 27 35 41 35 39 40 34 31 24 22 29 46 43 40 48 48 52 59 60
39 30 39 42 43 38 37 39 39 46 44 46 43 44 39 34 39 34 37 43 45 44 45 40 33 27 21 28 36 29 34 41 37 27 27 30 34 39 40 38 41 48 51 53 58
38 35 41 30 32 39 41 40 37 37 45 46 42 39 35 28 32 32 36 38 42 45 41 37 26 30 33 35 37 36 37 40 37 36 28 35 36 41 43 40 41 46 50 55 59
33 36 41 38 42 38 36 37 40 40 39 37 35 38 37 30 29 27 33 33 33 39 37 37 25 30 28 35 36 35 37 39 39 40 39 40 40 49 48 46 44 47 51 50 51
44 45 40 38 36 33 32 39 37 38 42 44 37 33 34 37 39 40 41 41 39 37 33 31 30 28 24 34 33 27 33 37 39 42 40 33 36 44 43 46 43 44 46 46 48

GFSSW_sfc_temp_132.txt.gz
Temp
59 59 59 59 58 58 58 58 57 57 58 58 58 59 59 58 57 58 55 64 62 67 67 68 67 65 63 59 61 59 45 42 48 52 56 68 67 72 75 70 75 77 73 77 78
59 59 59 58 58 58 58 57 57 57 57 58 58 58 58 58 53 55 64 68 67 68 65 63 62 62 56 56 58 54 45 49 58 60 60 68 68 67 69 69 70 74 74 76 77
58 58 58 58 58 58 57 57 56 57 58 58 58 58 58 56 55 63 67 67 67 66 65 66 67 63 55 54 56 52 52 58 60 63 64 65 66 71 62 63 68 64 72 72 73
57 57 57 57 58 57 57 56 56 57 58 58 58 58 57 54 50 63 68 68 67 66 66 64 61 54 52 51 57 52 60 60 60 66 65 63 68 66 62 67 73 71 73 74 72
56 56 56 57 57 56 56 56 56 56 57 57 58 58 54 52 56 70 67 68 66 67 65 64 60 57 51 54 56 54 59 62 64 65 65 67 64 65 67 69 74 73 73 72 71
56 56 56 56 56 56 56 56 55 56 56 57 58 57 50 47 71 72 70 69 68 67 66 64 62 62 56 54 52 59 59 58 58 59 61 61 62 60 66 70 71 73 70 69 70
56 56 55 55 55 55 55 55 55 55 56 57 58 56 51 53 67 65 70 68 67 67 63 66 64 58 57 54 58 58 52 55 57 57 58 61 58 58 64 68 67 69 71 72 70
56 55 55 54 54 54 54 54 54 55 56 57 58 53 45 68 63 68 69 68 72 71 68 68 65 59 56 58 56 52 50 42 56 58 60 57 50 61 66 66 66 70 74 71 73
56 55 54 54 54 54 54 53 54 56 56 58 52 49 50 71 68 70 67 66 68 68 67 74 63 56 56 46 41 43 38 42 50 58 56 53 52 58 64 64 62 62 63 65 69
55 54 54 54 53 53 53 54 55 56 57 61 60 48 59 61 66 69 69 69 64 64 62 58 52 47 44 40 31 36 38 43 42 48 54 49 51 59 60 58 58 58 60 62 65
55 54 54 53 53 53 49 48 49 49 52 51 54 56 62 66 69 67 70 67 63 59 48 53 44 39 44 46 48 46 43 41 47 54 47 50 52 56 60 56 57 55 58 59 63
54 54 53 53 53 53 48 47 48 48 42 55 58 60 65 65 58 63 68 58 54 45 50 45 40 50 53 51 48 46 43 42 49 53 49 47 47 55 58 55 59 62 57 60 63
53 53 53 52 52 49 50 51 54 52 39 51 59 59 61 63 56 57 62 55 49 46 44 38 46 54 51 47 47 45 42 42 42 47 48 45 44 48 55 56 59 61 62 63 64
53 52 52 52 48 48 47 54 53 50 34 47 53 58 61 58 52 61 61 55 50 44 45 43 50 49 46 45 47 40 48 48 45 41 34 46 34 47 49 52 55 58 59 59 63
52 52 52 52 44 47 52 53 53 46 25 50 53 62 58 53 54 54 59 56 45 46 44 40 44 44 42 45 48 43 49 45 44 40 35 42 31 43 46 47 50 54 59 59 63
52 52 52 49 44 51 53 50 47 35 28 46 54 51 49 51 52 54 54 57 54 47 45 43 49 45 44 49 48 50 45 43 41 37 29 39 37 35 45 47 52 59 61 61 63
51 51 49 52 46 50 49 46 34 29 50 43 45 49 46 44 47 48 45 42 37 33 33 41 41 45 49 42 45 43 36 25 24 25 28 43 38 41 49 51 53 54 57 59 61
51 50 48 52 50 50 46 38 29 41 42 49 46 45 40 45 44 44 41 36 44 41 33 29 28 40 47 41 37 36 34 22 17 22 26 37 30 40 49 48 50 53 60 59 57
50 42 44 47 49 47 40 30 31 40 45 42 42 38 39 43 41 40 38 37 41 41 31 29 31 43 46 46 42 36 29 39 28 30 25 31 37 45 43 42 46 49 55 54 52
42 42 43 49 48 43 35 36 39 46 46 45 35 39 31 35 35 35 36 41 40 42 41 36 27 40 43 45 44 37 42 27 26 12 16 28 29 29 37 37 41 44 46 49 55
41 38 46 48 47 38 28 34 43 48 47 41 37 35 36 34 36 34 36 40 42 41 41 36 31 32 39 35 31 33 32 33 32 27 22 22 28 38 36 39 38 43 47 47 50
40 29 46 48 34 34 32 42 45 45 48 45 42 40 36 36 34 34 34 38 43 41 34 38 31 25 30 40 42 39 34 30 23 23 26 27 26 43 40 42 41 39 42 47 49
36 37 47 45 28 26 40 42 44 44 43 42 40 42 41 35 29 35 36 43 43 40 35 37 28 17 27 32 40 36 38 38 34 30 25 21 25 45 42 41 39 40 43 47 49
37 29 37 39 40 36 35 37 37 44 43 44 42 42 37 33 36 32 33 40 41 40 45 40 30 27 21 26 31 29 36 38 36 26 28 29 29 38 38 37 37 42 45 48 52
37 33 40 29 32 37 39 38 35 35 43 43 38 38 34 29 31 30 34 35 39 43 39 36 24 30 31 33 34 34 33 35 33 34 27 34 32 36 39 41 41 44 46 47 47
32 34 38 36 39 36 36 36 37 39 37 36 34 37 36 29 28 26 31 31 31 36 35 35 21 25 26 33 35 32 31 32 31 31 33 34 32 41 44 46 44 43 44 44 45
41 43 38 35 34 32 32 37 37 38 41 42 36 32 32 35 38 38 38 37 37 33 30 32 30 27 23 31 31 26 27 31 31 33 33 28 33 39 38 41 39 40 41 41 42

GFSSW_sfc_temp_135.txt.gz
Temp
59 59 59 59 58 58 58 58 57 57 58 58 58 59 59 58 57 56 54 62 61 66 67 64 63 62 60 55 57 55 44 39 45 49 53 64 62 66 69 67 69 71 69 73 71
59 59 59 59 58 58 58 57 57 57 58 58 58 58 58 57 51 53 64 66 65 67 62 61 59 60 54 52 55 52 40 45 53 55 55 63 63 64 64 65 68 69 73 74 72
59 58 58 58 58 58 57 57 56 57 57 58 58 58 57 55 54 61 68 66 67 66 62 63 63 60 51 51 53 48 48 53 57 59 59 59 62 65 59 59 65 65 70 73 72
58 57 57 57 57 57 57 56 56 57 57 58 58 58 57 52 49 61 68 67 67 63 63 62 59 52 49 49 52 48 55 56 55 61 59 57 59 61 58 62 71 72 72 73 71
57 57 57 57 57 56 56 56 56 56 56 57 58 58 52 50 54 68 68 67 64 64 61 60 56 53 49 52 54 50 53 57 59 59 58 61 58 59 62 65 69 72 69 69 71
57 56 56 56 56 56 56 56 55 55 56 57 58 57 49 46 67 67 66 65 64 61 61 61 59 59 54 52 50 54 54 54 55 57 57 57 58 54 60 66 67 68 67 67 68
57 56 56 56 56 55 56 55 55 55 55 56 58 56 49 51 64 63 65 65 65 65 60 63 62 56 55 52 56 56 50 52 54 56 55 57 55 54 61 64 63 65 67 67 66
57 56 55 55 54 54 54 54 54 55 56 56 58 51 45 65 60 64 65 66 68 66 64 66 64 58 53 56 54 49 46 40 53 55 57 52 48 58 63 61 60 62 64 67 68
56 56 55 54 54 54 54 54 54 56 56 57 50 48 47 67 63 66 64 64 65 64 63 71 61 54 52 44 40 41 34 39 45 55 52 50 47 52 59 61 60 62 59 62 63
56 55 55 54 54 53 53 53 54 54 55 58 58 46 55 57 63 66 65 65 60 60 60 57 50 45 43 39 31 36 36 40 39 48 49 46 48 56 56 56 55 56 57 57 59
56 55 54 54 54 53 49 47 47 45 49 49 50 52 57 63 65 63 66 63 60 56 46 50 43 40 43 44 46 43 39 39 45 50 44 46 48 53 57 52 52 54 55 55 59
55 54 54 54 53 53 49 46 47 47 43 53 53 54 59 61 54 59 64 54 51 43 47 42 38 46 49 49 45 43 39 38 43 48 45 43 44 51 54 52 54 56 56 56 57
54 54 53 53 53 51 50 50 54 52 39 49 54 56 58 60 52 53 58 52 46 43 41 37 43 50 47 43 42 40 39 38 39 42 44 41 41 45 49 52 55 56 57 58 57
53 53 52 52 48 50 50 52 52 50 34 45 50 56 59 57 49 58 58 53 47 41 41 39 46 45 42 41 41 34 45 43 40 36 29 41 30 44 48 48 52 54 54 54 56
52 52 52 52 44 47 52 52 49 47 26 48 50 61 56 52 50 52 56 53 44 43 42 38 41 41 38 41 43 38 44 42 41 35 31 39 29 40 44 45 47 51 55 58 57
52 52 52 49 44 50 51 51 48 33 27 43 52 49 48 49 50 51 51 55 51 44 41 41 47 42 41 45 44 45 40 38 37 33 25 37 30 35 41 41 44 47 50 52 55
52 52 50 52 46 49 49 45 33 27 48 41 44 47 44 42 46 47 44 41 34 31 31 37 39 42 46 38 41 40 33 23 22 22 25 36 31 33 37 42 41 44 48 49 53
51 50 48 51 48 47 45 36 26 39 40 47 45 45 40 43 41 42 39 34 40 37 30 27 26 38 45 39 34 34 31 20 13 19 23 35 25 35 43 45 45 48 48 48 49
50 43 44 46 46 47 40 27 30 36 43 41 42 37 36 41 39 38 35 34 37 38 29 27 28 41 43 42 39 33 28 35 24 29 23 27 33 40 43 42 43 45 45 44 46
40 41 44 47 49 45 35 34 36 43 43 42 33 37 29 33 33 34 35 39 37 41 39 34 26 38 40 41 40 34 38 24 23 12 14 21 24 24 36 38 41 39 38 43 47
42 39 45 49 48 39 28 31 40 46 44 38 35 33 33 32 33 32 33 37 40 39 39 33 29 31 36 32 28 30 28 29 28 24 20 19 22 38 38 40 39 40 41 43 45
40 31 45 48 34 34 30 40 46 43 45 42 40 38 34 35 33 33 32 37 42 39 32 35 30 24 28 38 40 35 31 27 18 16 25 24 26 41 40 38 41 41 44 46 46
36 36 45 44 28 29 39 41 42 42 40 39 38 40 40 34 30 33 34 40 40 37 33 35 27 17 26 30 36 32 37 36 32 28 23 20 26 41 40 40 41 42 43 45 47
35 27 34 37 38 36 33 35 36 44 41 42 39 40 36 33 35 31 32 38 40 38 44 40 30 26 20 25 27 26 31 35 33 23 26 27 28 33 36 37 40 41 44 42 42
36 31 38 29 30 34 37 36 34 35 42 42 38 37 34 29 31 30 32 33 37 41 38 34 23 28 30 32 32 31 30 30 28 30 25 29 27 32 37 40 40 42 42 42 40
33 32 36 33 37 36 36 35 36 37 37 35 33 36 35 31 28 26 30 31 31 34 32 34 22 25 25 31 31 29 29 30 30 32 31 31 30 38 41 42 40 40 41 40 41
40 41 38 34 33 34 33 36 37 38 40 40 35 32 32 34 36 36 36 36 35 32 30 29 27 26 23 29 29 24 26 29 31 30 30 26 30 36 36 38 36 37 39 39 40

GFSSW_sfc_temp_138.txt.gz
Temp
59 59 59 59 58 58 58 58 57 57 58 58 58 58 59 58 56 54 54 62 60 66 66 63 61 60 58 53 55 52 42 37 42 46 52 58 59 62 65 64 64 66 67 72 69
59 59 59 59 58 58 58 57 57 57 58 58 58 58 58 57 50 52 64 66 66 66 62 60 57 58 53 50 51 49 39 43 51 53 53 59 58 60 59 61 64 65 68 70 67
60 59 59 58 58 58 57 57 56 57 57 58 58 58 57 54 53 58 68 66 67 65 60 60 60 57 49 49 49 45 43 49 54 57 55 56 59 58 56 51 61 60 67 68 68
59 58 58 58 58 57 57 56 56 57 57 57 58 58 57 50 47 58 68 67 67 61 61 59 56 50 47 46 49 45 51 52 52 57 56 53 55 59 56 58 66 66 66 66 67
58 57 57 57 57 57 56 56 56 56 56 57 58 58 52 50 54 64 69 67 61 61 59 58 54 51 47 48 51 48 51 53 55 56 54 57 54 56 57 61 65 65 65 65 65
57 57 56 56 56 56 56 56 55 55 56 56 57 58 48 46 63 63 64 62 63 61 58 58 56 56 51 49 47 51 51 52 52 54 55 55 56 52 57 63 63 65 64 64 64
57 56 56 56 56 56 55 55 55 55 55 56 57 55 47 53 59 59 63 62 61 62 58 60 59 54 52 51 54 52 46 49 51 51 51 51 47 50 58 60 59 61 62 63 63
57 56 55 55 55 54 54 54 54 55 56 56 57 50 46 63 59 62 60 62 64 63 62 61 60 55 51 54 51 46 43 38 50 51 55 49 43 54 60 57 57 60 60 62 63
57 56 55 54 54 54 54 54 54 56 56 57 49 47 48 65 60 63 62 61 61 61 60 69 59 51 51 41 38 39 33 36 43 51 49 46 41 51 60 58 54 56 56 58 60
56 56 55 54 54 53 53 53 54 54 55 57 56 45 54 55 61 63 60 62 57 57 56 54 47 43 41 38 29 34 33 37 37 46 49 44 46 49 51 53 52 52 53 55 55
56 56 55 54 53 53 49 51 49 45 47 47 48 49 54 60 62 59 61 60 56 52 43 46 41 35 36 41 43 40 35 35 40 46 40 42 44 50 50 48 48 51 54 54 57
56 55 54 54 53 53 48 46 51 48 42 52 51 52 56 57 51 58 61 52 49 41 43 40 34 42 46 44 41 38 36 34 40 45 42 40 43 51 47 49 50 51 51 54 54
54 54 53 53 53 49 47 49 53 49 38 47 51 52 55 57 50 51 56 50 45 41 39 36 40 47 44 40 39 36 34 34 34 39 40 38 39 42 45 47 52 54 53 54 54
53 52 52 52 48 49 49 53 51 51 34 42 47 53 56 55 47 55 55 51 45 39 40 37 43 43 39 38 38 32 40 39 37 33 26 39 27 42 43 44 48 47 46 49 51
52 51 51 52 46 48 51 52 51 49 27 46 48 58 54 49 49 51 54 51 41 40 40 35 40 40 36 38 40 36 41 38 37 32 29 33 26 38 42 35 39 43 46 48 49
51 51 51 49 46 51 52 52 49 36 28 43 51 48 47 48 48 49 50 51 48 42 40 38 44 41 39 43 41 43 38 35 32 29 22 29 27 26 30 35 39 43 46 47 47
51 51 49 51 46 51 48 46 34 26 46 40 43 46 44 42 44 45 40 37 33 32 30 36 36 40 44 37 40 38 31 22 20 22 22 33 27 30 36 39 40 42 43 44 46
51 51 50 51 49 49 46 37 26 37 38 44 42 41 37 40 39 39 36 32 38 36 29 27 27 35 42 37 32 31 29 20 13 17 20 31 22 31 39 42 43 45 44 44 45
50 44 44 48 47 47 38 27 29 35 42 40 41 35 33 38 37 35 32 31 34 35 27 27 27 39 41 40 37 30 26 33 23 26 21 25 29 37 42 44 43 44 44 42 45
41 42 43 48 48 43 32 33 33 41 43 41 35 35 29 30 31 31 30 36 35 38 37 32 25 36 38 39 38 33 35 23 22 7 11 16 22 23 34 38 40 42 41 44 45
42 37 44 47 47 37 25 30 38 44 44 38 35 32 32 31 32 31 31 35 38 37 37 32 29 29 33 30 27 29 27 28 26 22 17 17 20 35 37 38 37 41 42 45 44
40 31 44 46 33 31 28 36 44 43 45 41 39 36 33 33 31 31 31 34 39 38 31 34 29 22 27 35 38 34 28 25 16 18 22 22 22 39 38 40 41 40 41 42 42
35 36 44 43 24 23 36 38 41 41 41 39 37 39 39 33 28 32 33 39 38 36 33 34 26 16 25 28 34 29 32 34 30 27 19 17 24 39 39 40 40 38 40 39 39
36 28 35 39 35 33 33 35 36 42 41 40 38 40 34 31 33 30 32 38 38 37 44 39 29 25 18 25 26 25 29 31 29 22 24 24 28 34 34 36 37 39 40 40 40
35 31 35 28 28 35 36 36 34 34 40 40 36 35 32 29 30 30 32 33 37 41 36 33 23 27 29 30 29 29 28 27 26 29 24 28 29 31 34 35 37 39 41 37 37
32 31 36 36 38 36 36 33 34 36 35 34 32 35 35 30 29 27 31 31 31 33 31 31 19 24 24 30 29 27 27 28 30 29 28 30 29 37 39 41 38 38 38 36 34
37 39 39 34 32 32 32 35 36 36 38 39 35 32 32 34 36 36 36 35 33 32 29 29 28 26 23 28 28 23 27 27 30 28 27 25 29 36 35 36 33 34 35 34 34

GFSSW_sfc_temp_144.txt.gz
Temp
60 60 60 60 59 58 58 58 57 58 58 59 59 59 59 59 59 71 74 73 74 67 68 80 81 80 81 77 79 79 69 68 71 69 73 78 72 80 81 79 81 83 82 86 90
61 60 60 59 58 58 58 58 57 57 58 58 58 59 59 58 67 72 71 68 66 67 79 78 75 78 77 75 76 73 69 70 75 75 73 76 74 76 75 75 77 80 85 88 90
61 60 60 59 58 58 58 57 57 57 58 58 58 59 58 62 67 73 68 67 68 72 80 79 78 76 72 74 73 72 67 73 72 74 75 72 73 78 74 72 77 77 80 84 85
60 60 59 58 58 58 57 57 57 57 57 58 58 59 58 68 63 77 69 68 68 78 78 76 75 70 69 67 72 65 70 71 72 72 71 70 75 71 75 76 80 81 82 82 82
59 59 58 58 58 57 57 56 57 57 57 57 58 58 68 67 70 78 69 71 78 78 76 73 70 69 66 67 67 65 69 70 71 71 72 73 70 71 73 78 80 80 78 79 80
58 58 58 58 57 57 57 56 56 56 56 57 58 58 66 62 77 79 77 77 79 78 75 75 71 72 68 66 65 67 67 69 71 71 72 68 69 71 74 76 75 76 76 79 80
58 57 57 57 57 56 56 56 55 56 56 57 57 65 63 67 78 80 77 78 79 78 73 76 75 71 69 64 68 67 61 68 68 67 67 70 67 66 73 75 73 75 77 78 81
58 57 57 56 56 55 55 55 55 55 57 57 57 65 64 75 80 76 79 77 78 78 76 77 76 71 67 69 66 62 62 59 65 67 67 67 60 68 74 73 72 74 77 78 79
57 56 55 55 55 55 54 54 55 57 57 57 62 64 63 73 72 78 79 74 75 76 76 75 74 67 66 62 60 61 57 56 59 67 65 63 59 69 74 71 70 73 75 76 77
57 56 55 55 55 54 54 54 56 57 61 65 66 58 68 66 72 74 78 75 71 71 69 68 68 64 64 61 53 54 54 55 55 62 61 60 61 67 71 71 70 72 73 71 72
57 55 55 54 54 53 57 65 62 59 60 62 63 62 64 71 73 73 75 73 72 68 61 63 60 57 57 57 56 55 53 54 59 62 57 59 60 65 69 69 67 67 68 68 70
55 55 54 54 54 54 57 57 60 60 56 64 63 61 65 68 64 69 75 66 64 59 60 58 54 55 57 56 55 54 52 53 57 59 56 58 58 63 65 62 64 64 66 67 68
55 54 53 52 53 53 57 57 64 64 56 59 61 61 63 67 63 65 70 66 60 57 56 53 54 56 54 53 52 51 48 49 48 55 60 56 58 58 60 63 64 65 66 66 66
54 53 52 51 49 51 51 58 59 60 50 54 55 61 64 67 58 68 69 66 59 55 56 54 56 53 52 49 51 48 50 49 50 49 47 56 45 58 57 58 59 61 62 63 63
53 52 52 54 52 56 55 57 57 56 33 54 56 69 66 62 62 60 69 65 57 55 55 51 50 50 49 48 51 48 52 50 50 49 49 51 45 54 54 51 54 58 59 61 62
52 52 51 48 49 56 63 57 53 40 31 49 56 55 55 57 57 58 60 64 62 55 53 51 56 53 50 50 50 52 49 52 52 49 41 44 43 52 50 51 53 57 58 57 52
52 51 53 53 48 56 55 54 34 32 54 47 50 54 55 51 49 53 53 51 50 44 43 47 48 52 53 49 51 51 48 43 40 40 40 44 41 48 53 55 54 52 49 45 44
51 51 52 53 51 53 51 42 31 47 49 54 54 53 49 51 49 48 50 47 50 50 48 43 38 48 51 48 45 45 44 39 27 34 38 46 37 48 55 57 56 52 46 45 41
50 46 47 48 51 50 43 33 43 49 53 49 51 47 46 48 50 48 48 48 49 51 45 42 40 49 50 51 49 43 42 45 35 38 33 42 45 53 55 52 53 47 42 41 43
44 43 43 47 51 50 39 37 47 53 54 54 46 50 44 46 46 47 45 48 46 49 50 45 38 46 48 51 49 46 49 36 38 22 23 36 37 42 44 44 49 40 38 40 41
42 36 44 50 53 40 32 39 48 52 54 52 48 44 48 45 48 46 45 46 49 47 50 48 43 40 45 43 42 41 40 40 39 37 29 28 37 46 41 41 40 40 41 41 41
39 30 45 49 36 40 41 46 48 50 51 49 51 48 47 47 44 44 42 46 51 51 43 48 43 38 40 46 48 46 41 37 31 28 33 31 35 48 47 46 41 40 42 44 44
33 33 43 43 32 36 44 45 49 47 49 48 45 48 48 46 39 44 43 48 50 48 45 46 40 32 34 40 44 41 43 42 37 34 30 27 36 51 49 47 44 41 44 45 46
36 31 33 38 44 44 39 40 42 47 47 48 46 48 45 42 45 40 40 43 47 48 45 47 42 38 36 37 42 36 40 42 39 31 35 36 39 45 42 40 41 41 44 45 45
35 35 42 30 33 43 44 42 37 35 44 47 42 46 44 38 40 39 42 41 44 45 46 45 35 39 40 41 41 39 39 41 37 39 32 38 38 41 40 39 40 42 43 43 42
33 36 41 39 43 41 42 40 39 42 43 41 42 45 46 40 41 37 42 42 40 44 43 44 34 34 33 39 39 36 40 40 40 40 40 40 39 42 46 46 39 41 40 39 40
41 47 41 39 40 39 41 43 44 45 42 49 46 43 43 44 49 50 51 49 47 43 40 39 38 35 31 38 37 31 37 38 38 37 33 31 38 43 41 41 36 37 39 37 38

GFSSW_sfc_temp_150.txt.gz
Temp
62 61 62 61 60 60 59 59 59 59 59 59 60 60 60 59 60 79 77 73 74 69 68 83 86 86 87 82 86 86 69 66 72 75 76 84 79 85 88 83 85 87 86 89 92
62 62 62 62 60 60 59 59 58 59 59 59 59 59 59 59 66 76 70 71 70 70 79 81 80 84 79 80 82 76 68 71 81 81 77 80 79 80 80 80 81 84 89 89 90
62 62 62 62 61 60 59 59 58 59 59 59 59 59 58 60 70 75 69 70 70 71 80 85 83 80 74 79 79 77 68 76 79 80 80 76 76 82 77 74 80 79 82 85 85
61 61 61 61 61 60 59 58 58 58 58 58 59 59 58 68 64 77 70 70 71 78 83 82 80 74 72 71 80 71 76 77 78 79 76 73 77 74 76 78 83 82 82 82 81
60 60 60 61 61 60 59 58 58 58 58 58 59 59 65 70 75 79 70 71 80 83 80 80 76 75 70 75 77 73 74 77 79 77 76 77 73 73 75 81 82 82 82 80 80
59 59 59 59 59 59 59 58 57 57 57 58 59 57 66 62 86 86 84 84 83 83 81 81 77 79 72 72 71 76 75 74 76 76 77 73 73 75 78 80 79 79 79 81 81
59 59 58 59 59 59 58 57 57 57 57 58 59 66 66 67 87 88 84 83 86 84 79 83 81 75 75 70 77 74 66 71 74 76 72 74 68 70 78 79 77 78 79 80 81
59 58 57 58 58 57 57 56 56 57 57 58 59 67 62 84 86 84 86 83 85 85 82 83 81 75 72 75 71 66 67 60 72 73 72 71 61 74 79 77 75 77 78 78 77
58 57 57 57 56 56 56 56 56 57 58 60 63 66 63 75 76 83 84 79 82 82 82 82 77 71 72 64 62 67 58 63 66 74 71 67 61 72 79 76 74 75 75 75 75
57 57 56 56 55 55 55 55 58 57 62 70 71 63 70 71 80 82 85 83 77 76 73 71 70 64 66 63 52 57 58 64 62 70 69 63 62 71 75 75 73 71 71 71 71
57 57 56 55 55 55 55 64 61 58 64 65 68 68 73 79 81 77 82 77 77 72 61 68 61 57 65 64 63 61 59 58 64 70 64 61 62 66 72 70 68 68 67 67 67
57 57 56 55 55 54 55 56 63 63 58 71 70 73 78 78 69 74 82 69 67 61 66 64 57 66 66 64 62 61 57 57 64 68 63 61 60 67 69 67 67 66 65 60 60
56 56 56 54 53 51 53 57 65 66 57 64 73 71 72 74 67 71 74 71 66 61 64 58 63 66 63 62 58 59 57 57 57 61 62 60 57 63 66 67 67 66 61 60 57
56 56 53 51 49 55 53 60 61 60 43 53 64 68 73 71 63 77 78 71 66 60 64 63 69 62 60 58 61 53 61 59 56 53 46 61 44 59 61 61 62 57 57 56 55
55 53 51 55 54 54 66 64 62 61 33 62 64 78 73 64 69 69 79 71 61 62 63 58 61 57 56 59 61 55 58 55 55 51 50 52 48 55 62 57 53 53 54 55 55
54 52 52 50 50 57 65 62 56 41 32 56 64 60 61 64 65 70 68 72 70 62 64 61 65 62 59 60 58 59 54 55 54 51 39 49 50 53 57 56 52 52 53 54 54
53 52 53 55 49 57 57 52 37 34 60 55 57 61 59 58 61 61 59 56 54 49 50 56 56 61 60 54 59 55 49 40 41 39 39 55 49 53 53 53 52 51 52 54 55
52 51 53 52 54 57 54 41 32 50 55 64 62 60 54 60 59 58 57 53 59 58 54 48 43 56 60 55 53 53 50 39 32 37 40 53 43 47 53 53 52 52 53 51 51
52 49 46 48 52 51 46 34 39 52 62 60 60 53 53 59 58 56 54 55 60 60 50 50 50 59 59 60 56 52 44 53 42 43 37 44 53 55 54 52 51 50 51 49 52
46 43 44 49 52 47 37 37 49 62 63 62 52 56 49 54 52 53 53 60 59 63 63 54 43 54 55 56 56 51 56 40 41 28 29 41 45 42 47 48 51 50 49 50 52
45 39 43 50 50 38 34 37 51 62 64 57 55 54 55 54 55 52 53 58 62 58 59 55 50 48 53 47 48 47 44 46 46 42 32 31 38 51 48 49 47 48 50 50 50
43 34 43 46 35 36 35 49 53 58 62 59 60 58 56 56 54 52 51 56 62 59 49 55 50 42 46 56 58 54 49 46 34 34 39 36 36 52 49 50 50 48 50 51 52
36 33 42 43 31 33 46 48 55 57 56 55 54 58 60 55 48 54 54 58 59 55 51 53 44 37 43 48 52 45 49 50 44 39 32 29 35 51 48 48 50 48 49 50 50
35 30 33 35 38 36 40 43 46 59 57 57 57 59 55 52 55 50 52 53 57 56 49 52 46 42 37 43 48 41 46 49 44 33 35 37 41 42 44 46 46 47 49 48 49
38 35 40 30 33 37 41 40 46 47 56 59 54 54 52 46 50 48 50 49 51 47 51 49 38 44 46 49 48 47 45 47 44 44 36 41 42 44 46 47 48 49 48 46 46
34 39 44 46 43 41 41 39 42 51 52 51 50 54 53 48 49 44 48 45 43 48 45 47 37 40 37 47 47 43 46 47 47 46 45 46 44 49 51 51 48 46 45 44 45
41 45 48 43 40 39 39 44 45 51 52 55 51 49 49 52 56 57 55 52 51 45 41 42 40 38 32 43 42 35 42 45 46 48 43 36 45 49 46 46 45 44 44 44 44

GFSSW_sfc_temp_153.txt.gz
Temp
62 62 62 62 61 60 60 59 59 59 59 59 60 60 60 59 59 69 65 67 67 68 68 75 76 76 73 67 69 66 53 47 55 61 63 73 72 76 76 73 76 78 76 76 80
62 62 62 62 61 60 60 59 58 59 59 59 59 59 59 58 60 64 69 69 68 69 71 71 71 73 64 65 67 60 51 55 65 64 64 70 71 69 70 71 73 73 76 78 78
62 62 62 61 61 60 60 59 58 59 59 59 59 59 59 58 61 67 69 69 69 69 71 72 74 71 63 64 64 62 58 66 70 69 68 66 67 70 65 63 67 67 71 74 74
61 61 61 61 61 60 59 58 58 59 59 59 59 59 58 60 56 66 68 70 70 70 72 72 71 61 59 58 66 59 68 68 68 71 68 64 66 66 60 63 72 72 72 73 73
60 60 60 60 60 60 59 58 58 58 58 59 59 59 58 60 66 71 69 70 72 74 71 72 68 65 59 63 64 62 64 68 69 69 65 69 66 65 63 69 74 76 76 71 72
59 59 59 60 60 59 59 58 57 57 57 58 59 58 57 54 77 75 73 75 74 74 72 73 69 70 63 63 60 66 65 64 65 66 66 66 63 62 65 72 74 75 70 71 68
59 59 59 59 59 59 58 58 57 57 57 58 59 60 58 60 75 71 77 76 76 76 72 74 73 66 64 61 68 66 59 61 63 65 60 65 61 59 67 71 71 72 71 69 67
58 58 58 58 58 58 57 57 56 57 57 58 59 57 53 77 71 76 75 75 78 78 75 76 74 66 61 65 63 58 55 47 62 64 64 63 50 64 66 69 65 68 66 66 61
58 57 57 56 57 57 57 56 56 57 58 58 55 54 55 73 72 76 76 73 76 76 74 81 70 61 61 52 48 51 44 50 55 64 61 58 52 61 66 65 64 61 61 61 58
58 57 57 56 56 56 55 56 57 56 61 64 65 53 63 66 74 76 75 77 72 71 69 66 59 53 51 47 39 46 46 53 50 54 58 52 51 60 62 59 57 56 55 55 55
57 57 57 56 55 55 54 56 53 50 54 55 58 61 69 75 76 71 75 71 68 64 54 60 49 46 51 56 57 55 52 49 53 60 55 52 51 54 57 56 55 51 51 52 53
57 57 56 56 55 55 54 52 59 56 48 63 62 65 72 73 65 69 73 62 59 52 58 52 48 58 63 61 57 54 51 48 54 60 55 50 48 54 55 55 53 51 49 50 51
57 56 56 55 53 51 52 55 61 62 50 58 66 65 67 70 63 64 68 63 57 53 54 49 55 64 60 57 56 52 49 48 49 53 51 48 44 51 55 53 54 52 51 51 50
56 56 54 52 50 51 49 57 60 59 42 51 60 66 69 68 59 71 70 65 58 53 55 53 62 59 55 55 55 47 54 53 50 44 36 48 32 47 52 47 49 49 47 46 47
55 55 52 56 51 50 59 59 59 55 31 58 61 70 67 60 61 63 70 63 54 56 55 50 52 52 51 54 57 50 53 50 48 42 37 42 36 42 51 43 44 45 47 46 47
55 53 53 51 50 54 58 54 51 38 30 51 60 58 57 60 60 62 62 64 63 56 55 53 56 53 52 56 54 54 49 46 44 41 30 42 40 36 43 42 44 46 48 48 47
55 53 53 53 48 56 56 49 36 31 55 50 53 57 55 54 56 57 54 50 46 41 42 51 50 55 57 48 51 48 40 28 27 27 27 46 41 36 44 47 46 45 43 44 45
54 52 53 53 54 56 51 41 30 43 49 60 57 55 50 55 55 54 51 46 52 50 45 39 37 50 54 50 45 44 41 27 24 25 29 46 34 34 45 47 47 47 44 45 43
52 49 48 49 51 50 44 33 39 45 55 55 56 48 48 54 55 52 48 47 52 53 42 42 44 53 55 56 52 45 37 44 34 34 28 34 37 43 46 45 46 44 44 41 43
47 44 44 50 51 47 38 38 44 55 57 58 48 50 42 49 49 50 48 54 53 58 55 46 37 51 51 54 51 47 48 32 31 23 22 30 33 31 41 43 45 42 41 42 45
44 39 43 50 49 40 32 35 45 54 58 53 49 49 49 47 50 47 48 54 56 52 53 48 43 42 47 43 41 40 38 40 38 30 24 23 26 44 42 43 42 42 44 42 43
43 35 43 48 34 34 35 43 50 53 57 53 54 53 50 51 49 48 47 52 56 52 45 48 42 36 41 50 52 47 42 38 24 26 24 23 26 44 44 44 43 44 46 44 44
37 33 42 43 32 32 38 45 50 51 52 53 51 53 53 50 43 50 49 53 55 50 46 48 37 30 37 41 46 41 44 45 36 30 27 19 26 44 45 43 44 42 43 43 45
35 29 32 34 34 34 37 41 44 53 52 56 53 54 49 46 50 45 44 51 51 47 50 50 41 35 29 37 40 35 42 44 38 25 28 28 33 39 40 41 42 42 41 42 42
37 33 35 28 31 35 37 38 42 42 50 53 48 49 47 40 44 43 44 44 47 48 46 43 32 37 41 44 46 43 42 42 39 37 28 35 38 40 41 41 41 42 43 43 43
33 34 37 35 37 35 37 35 38 45 47 45 45 49 48 41 41 38 41 38 39 42 41 42 28 33 30 41 44 40 43 43 43 43 41 41 39 44 45 44 42 42 42 41 42
40 44 40 38 35 33 35 38 40 45 48 50 47 43 44 45 47 48 47 45 44 38 35 36 34 33 27 40 39 30 38 42 43 42 39 32 39 43 41 42 39 39 40 40 41

GFSSW_sfc_temp_156.txt.gz
Temp
61 61 61 61 61 60 60 59 59 59 59 60 60 60 60 59 59 65 62 66 66 68 67 72 72 71 67 63 64 63 51 48 50 56 57 68 67 71 70 71 71 71 70 72 76
62 62 62 61 61 60 60 59 58 59 59 59 59 59 59 59 57 62 69 69 68 69 70 69 68 69 61 59 62 57 49 54 62 63 61 66 67 65 67 66 67 68 73 74 73
62 61 61 61 61 60 60 59 58 59 59 59 59 59 59 57 61 66 68 69 69 68 68 68 69 67 58 58 57 54 53 60 63 66 66 63 61 64 60 58 64 65 66 70 66
61 61 61 61 61 60 59 58 58 59 59 59 59 59 58 59 55 65 68 69 70 68 70 68 66 59 56 55 58 54 63 62 63 64 65 61 63 61 59 62 69 68 69 65 59
60 60 60 61 60 60 59 58 58 58 58 59 59 59 58 57 62 71 68 69 69 71 67 66 63 60 55 57 61 57 60 64 64 62 60 65 59 62 58 66 69 70 62 59 58
59 59 59 59 59 59 59 58 57 57 58 58 59 59 56 53 73 72 71 70 70 68 67 66 65 65 60 59 56 61 59 60 61 62 61 63 59 61 62 68 70 62 57 57 57
59 59 59 59 59 59 58 58 57 57 57 58 59 60 54 58 70 66 71 71 70 71 67 69 68 62 61 59 63 62 56 59 59 60 58 60 57 56 65 66 62 57 56 56 56
59 58 58 58 58 58 58 57 57 57 57 58 59 55 50 72 68 69 70 70 75 72 71 70 70 63 60 64 60 54 53 46 59 59 61 60 48 60 63 62 55 54 54 54 54
58 58 57 57 57 56 57 56 56 57 58 58 54 52 51 71 68 72 73 70 71 72 70 78 67 59 59 50 46 48 44 46 52 58 58 55 49 57 57 61 54 51 51 52 52
58 57 57 56 56 55 56 56 56 55 60 62 62 51 60 63 70 72 70 73 67 67 64 61 56 52 49 46 39 44 44 50 46 52 54 49 51 55 54 52 48 48 48 49 49
58 57 57 56 55 55 54 55 53 50 51 53 56 57 64 70 73 68 70 68 64 60 51 55 46 43 49 51 53 53 49 46 49 54 52 46 46 52 52 49 46 45 46 47 48
57 57 57 56 55 54 54 53 56 55 47 59 59 60 66 68 61 66 70 61 57 50 53 48 43 53 56 55 54 51 47 46 52 55 51 44 44 53 50 46 46 45 44 44 46
57 56 56 55 53 51 52 55 61 59 46 55 60 61 63 66 59 61 65 60 54 50 50 44 51 58 56 53 51 49 46 45 46 49 48 45 43 48 47 48 48 47 46 46 45
56 56 55 52 51 50 50 58 59 58 41 49 55 60 64 65 57 68 67 62 55 50 51 49 57 55 52 52 52 43 51 50 46 42 36 45 32 41 43 43 44 44 42 42 44
55 55 52 56 50 50 56 57 57 55 31 55 57 69 66 60 59 60 66 60 52 53 52 48 49 50 48 51 54 46 50 47 44 38 34 39 33 36 42 38 39 41 43 42 43
55 54 53 51 51 54 56 56 53 39 30 49 57 56 54 57 57 58 59 62 60 53 50 50 53 52 50 52 51 52 47 43 40 37 28 37 36 33 35 39 41 42 43 44 43
54 54 53 54 48 53 58 51 37 32 52 48 49 54 52 51 54 54 52 49 45 40 40 46 48 50 54 47 48 46 39 28 27 26 27 42 36 33 40 43 43 40 41 42 42
54 53 53 53 53 53 51 42 31 41 45 56 54 52 47 51 51 51 48 46 50 48 40 37 35 47 52 48 44 42 40 28 25 24 28 41 28 32 42 44 44 44 43 44 42
53 50 49 50 51 51 45 36 36 45 50 52 53 46 45 51 50 48 44 45 51 53 42 38 40 48 51 52 51 43 36 43 33 31 27 31 34 41 43 41 42 41 42 39 40
47 45 45 50 51 46 41 37 43 52 55 54 46 50 41 46 45 46 44 51 50 55 54 47 37 46 48 51 49 45 46 32 29 23 22 26 27 27 36 39 42 39 39 39 41
45 40 44 50 49 40 32 34 45 54 55 50 47 47 47 45 48 44 44 51 54 52 54 48 41 39 46 42 40 39 37 38 36 29 24 23 26 40 40 41 39 39 41 40 41
43 34 44 48 35 34 33 41 47 49 53 51 51 49 46 47 45 45 44 50 54 51 47 48 41 34 40 48 49 44 39 35 22 25 23 22 26 41 40 41 41 41 43 42 42
37 35 43 43 32 31 38 42 46 47 50 50 48 52 52 45 42 48 47 50 51 48 44 46 36 28 34 39 43 39 42 41 33 29 27 19 26 42 42 40 42 39 41 42 41
35 29 33 35 36 36 34 37 39 49 47 50 46 47 45 44 49 42 44 46 46 46 49 48 39 36 33 35 37 34 39 39 36 24 28 27 32 35 37 38 39 40 40 40 41
37 32 33 27 31 34 37 37 37 39 47 50 46 45 39 36 42 38 43 43 45 47 43 42 34 37 38 41 41 39 39 39 35 35 29 34 36 38 39 39 39 41 41 41 41
32 33 34 30 37 34 36 37 37 40 44 41 40 45 45 39 38 35 41 39 39 41 38 39 27 34 31 38 40 36 39 39 40 39 38 38 35 40 41 40 38 39 39 39 39
39 41 37 33 31 32 35 37 38 43 47 49 43 40 41 45 48 48 46 44 43 38 35 35 33 30 28 36 37 30 35 39 40 40 38 30 36 40 38 39 36 37 38 37 38

GFSSW_sfc_temp_159.txt.gz
Temp
61 61 61 61 60 60 60 59 59 59 59 60 60 60 60 59 59 64 61 66 65 68 67 69 69 68 64 61 61 58 49 44 49 53 55 63 65 68 68 66 68 69 64 64 67
62 62 62 61 60 60 60 59 59 59 59 59 59 59 59 59 57 61 69 68 68 69 67 67 65 66 60 59 60 56 48 51 58 58 58 63 64 61 63 63 64 63 63 63 63
62 61 61 61 60 60 60 59 58 59 59 59 59 59 59 57 61 64 68 68 69 68 66 66 65 63 56 55 55 52 52 56 60 63 62 62 59 61 59 55 62 57 56 59 58
61 61 61 61 61 60 59 58 58 59 59 59 59 59 59 59 53 64 69 68 69 68 69 65 63 57 53 51 55 51 58 58 59 61 60 57 58 58 55 59 59 58 58 57 55
60 60 60 60 60 60 59 58 58 58 58 59 59 59 58 57 60 70 68 68 67 69 66 64 60 57 53 54 57 53 56 59 60 59 57 62 57 59 57 55 58 58 57 55 54
59 59 59 59 59 59 59 58 58 57 58 58 59 59 55 51 71 70 68 67 67 66 65 64 61 62 57 55 53 59 58 59 60 60 58 60 56 57 59 58 56 55 53 53 53
59 59 59 59 59 59 59 58 57 57 57 58 59 58 53 57 67 66 68 67 66 68 63 66 66 60 58 55 60 58 54 58 59 60 61 62 52 53 53 55 53 52 52 51 51
59 58 58 58 58 58 58 57 57 57 57 58 59 53 50 69 64 67 65 67 70 69 67 69 66 60 57 59 57 51 51 47 57 57 58 59 48 59 53 51 47 50 50 50 50
58 58 57 57 57 57 57 57 57 57 58 58 53 51 51 68 65 69 69 67 68 68 67 75 64 56 56 48 45 46 41 44 51 55 54 54 48 57 52 51 47 45 46 48 48
58 58 57 56 56 55 55 56 57 56 59 61 60 49 59 62 67 68 66 69 64 63 62 59 53 47 45 44 38 40 41 47 43 51 53 48 50 48 49 47 44 43 43 44 45
58 57 57 56 55 55 55 55 53 49 51 54 55 55 61 67 69 66 68 66 62 57 49 52 45 41 46 48 49 47 45 42 45 53 48 45 46 43 44 44 42 41 42 43 44
57 57 57 56 56 55 55 52 53 51 46 57 57 57 63 65 57 62 67 59 56 49 50 47 42 50 52 51 49 47 45 42 46 51 49 42 44 42 44 43 42 42 42 42 43
57 57 56 55 54 52 52 55 57 55 46 53 57 57 59 61 56 57 64 58 52 49 48 43 49 55 52 49 48 45 43 42 44 46 46 42 41 39 42 44 45 44 43 44 42
56 56 55 53 52 50 50 57 58 58 42 47 53 57 61 62 53 67 65 60 52 49 48 46 53 53 49 48 49 42 48 48 45 41 35 41 31 35 38 39 41 41 39 40 41
55 55 53 56 50 50 55 55 56 55 30 52 54 64 62 58 57 57 62 58 50 51 49 46 47 46 46 49 52 46 49 45 43 37 33 36 34 31 38 35 37 38 40 40 41
55 55 54 52 51 54 55 56 53 39 31 47 55 52 51 55 55 55 58 61 58 51 48 48 51 49 49 49 50 50 46 41 37 35 28 37 37 31 31 36 38 40 41 42 42
54 54 53 54 50 55 56 51 38 32 50 46 48 51 49 48 51 51 51 50 45 40 40 44 46 48 52 45 47 44 39 29 27 26 27 37 33 34 37 41 41 39 40 41 40
54 53 53 53 53 53 50 42 30 42 44 53 50 49 45 49 49 49 46 45 48 46 39 38 35 45 51 48 44 41 40 29 25 24 27 37 28 33 40 43 43 43 41 42 39
53 49 49 51 51 52 45 34 33 42 50 48 50 44 43 49 48 47 43 46 50 48 42 36 39 47 49 50 51 41 36 43 33 30 26 29 32 37 39 39 40 39 40 39 39
46 46 46 51 51 48 40 36 41 51 52 52 43 46 39 43 43 45 42 49 49 52 51 46 36 44 47 50 49 45 45 32 30 25 22 24 26 27 34 36 39 37 37 38 39
44 39 45 51 50 41 33 33 44 50 52 46 45 46 45 42 45 42 43 49 53 50 53 48 40 38 45 41 39 39 35 35 35 30 25 22 27 36 38 39 38 37 39 38 38
41 33 44 48 36 35 33 39 44 46 52 48 49 49 45 45 43 44 43 48 53 50 46 46 40 32 38 45 46 41 37 34 24 25 23 23 30 39 39 40 40 39 40 39 39
35 33 43 42 32 30 39 40 45 44 46 46 46 49 48 44 39 44 44 48 50 49 44 45 37 28 32 37 40 38 39 37 32 29 26 20 27 39 39 39 40 37 39 39 39
33 30 33 35 37 35 35 36 37 46 44 48 43 48 43 41 45 40 43 46 47 47 48 50 38 36 33 34 35 34 37 37 35 25 30 29 30 33 35 37 37 38 38 38 38
36 31 34 30 31 33 37 38 36 36 46 47 43 41 40 35 39 36 40 43 45 47 44 44 36 37 36 39 39 37 37 35 34 37 30 35 33 35 37 38 38 39 38 38 38
32 33 35 30 36 34 36 35 36 39 41 40 40 44 40 34 35 33 39 38 40 43 40 41 29 33 32 36 37 34 36 37 36 35 34 35 33 38 42 39 37 38 38 37 37
38 40 37 33 31 33 34 36 37 40 43 45 42 38 38 41 44 45 45 45 42 39 36 35 33 31 29 34 34 31 33 37 37 37 35 30 36 36 35 38 35 35 36 35 37

GFSSW_sfc_temp_162.txt.gz
Temp
61 61 61 61 60 60 60 59 59 59 60 60 60 60 60 60 58 63 61 63 63 67 67 68 67 66 63 59 60 57 48 44 46 50 52 62 62 66 65 61 58 58 57 59 62
62 62 62 61 60 60 60 59 59 59 59 59 59 60 60 59 57 60 68 68 68 68 67 65 63 64 58 56 57 53 46 49 55 56 56 60 61 59 61 60 57 56 58 60 59
62 62 62 61 60 60 60 59 58 59 59 59 59 60 59 57 60 63 68 69 69 67 64 63 64 61 55 54 54 48 49 54 58 60 58 57 57 59 58 54 58 52 53 56 56
61 61 61 61 61 60 59 58 58 59 59 59 59 60 59 58 51 63 69 69 69 66 66 63 62 56 51 49 52 49 55 55 57 59 58 55 55 59 49 47 55 54 54 53 51
60 60 60 60 60 60 59 58 58 58 58 59 59 60 59 56 59 69 68 68 67 67 63 62 59 55 51 52 55 51 53 56 59 58 55 60 55 53 46 52 55 55 53 51 50
59 59 59 60 60 59 59 58 58 58 58 58 59 59 55 50 68 68 66 66 65 64 63 62 59 59 55 53 51 55 53 55 56 56 56 59 55 50 49 54 53 52 50 49 49
59 59 59 59 59 59 59 58 58 57 58 58 59 58 52 56 65 64 66 64 64 65 62 64 63 60 56 53 57 55 52 54 55 55 56 58 49 44 50 52 49 49 49 48 48
59 58 58 58 58 58 58 57 57 57 58 58 59 53 50 67 63 65 63 65 66 66 65 66 64 59 55 56 55 49 48 44 53 53 55 55 42 46 49 48 44 46 47 46 46
58 58 57 57 57 57 57 56 56 57 58 58 52 51 51 67 63 66 66 65 65 65 64 72 62 53 54 47 44 44 39 41 49 52 51 50 41 45 47 48 44 43 43 45 45
58 58 57 56 56 55 55 56 57 56 58 60 59 49 58 60 64 66 62 66 62 61 60 58 51 46 44 43 37 39 39 44 41 48 49 46 37 42 44 44 40 40 40 41 41
58 58 57 56 56 55 55 56 54 50 49 52 54 54 60 66 66 63 63 63 60 57 48 49 44 40 45 45 47 45 42 40 42 48 45 44 38 38 40 41 39 39 39 40 40
58 57 56 56 56 55 56 54 56 52 45 55 55 55 60 62 56 61 66 56 53 47 48 45 41 48 50 49 46 43 41 40 45 48 47 43 33 37 40 39 39 39 39 40 40
57 58 56 55 54 53 53 55 58 55 47 51 55 55 57 60 55 56 62 56 50 47 46 42 47 52 50 46 45 42 42 41 42 44 43 40 36 36 39 41 42 42 41 41 40
56 56 55 53 52 51 51 58 56 57 42 45 49 54 57 58 51 64 63 58 51 47 46 45 51 50 46 46 46 39 48 47 43 39 34 39 31 33 36 37 39 39 38 39 40
55 55 53 56 50 50 56 55 56 52 29 50 50 60 58 55 54 56 59 57 49 48 47 45 46 44 43 47 49 45 48 45 41 35 32 34 32 30 36 33 35 36 38 38 39
55 55 53 52 51 54 53 55 53 38 27 45 52 50 49 52 53 54 56 58 56 50 45 46 49 49 47 47 49 48 44 40 35 35 28 35 36 29 29 34 36 37 39 39 39
55 54 53 54 49 54 55 51 38 32 49 43 45 48 46 45 49 49 50 48 44 39 38 43 44 46 50 44 47 44 40 30 28 27 28 35 32 36 36 38 40 39 39 39 39
54 53 53 53 53 53 51 42 31 38 43 50 47 46 42 46 46 47 45 42 46 44 37 36 33 45 49 47 43 41 40 31 27 24 27 35 28 34 38 39 41 42 40 40 38
53 49 49 50 52 52 45 34 35 41 46 45 47 41 41 46 47 45 42 43 48 47 41 36 37 44 46 48 49 40 35 42 33 30 26 29 32 36 37 37 38 38 38 37 38
45 45 45 50 51 48 40 35 40 47 49 48 40 44 37 41 42 43 41 47 47 51 50 45 36 43 44 48 46 44 46 34 31 24 22 24 27 30 32 34 37 36 36 37 38
43 38 43 50 49 42 33 35 40 48 50 45 43 43 44 41 42 40 42 47 51 48 53 47 41 37 44 40 38 38 36 35 35 30 26 22 27 35 37 38 37 37 38 37 37
41 32 44 49 36 36 33 39 45 44 50 47 46 44 44 43 41 41 41 46 52 49 46 47 40 33 37 43 45 40 37 35 27 27 24 21 28 37 38 40 40 39 40 38 38
36 31 40 42 31 33 38 41 45 44 45 46 42 45 46 42 37 42 43 47 49 49 44 46 37 30 34 37 39 38 38 36 32 29 26 20 29 37 36 38 40 39 38 38 37
35 30 33 36 36 35 35 35 36 43 43 46 42 45 43 41 44 39 42 44 46 48 50 51 38 38 34 36 37 36 36 35 35 25 28 31 34 32 34 35 36 36 37 36 36
32 31 32 29 31 34 35 37 36 36 44 45 41 40 37 36 35 35 40 42 45 46 44 44 34 37 38 41 40 38 36 34 35 39 31 37 33 35 36 36 38 37 36 36 36
32 32 35 30 32 33 35 33 33 37 39 38 37 41 41 35 36 33 34 37 37 42 40 40 32 35 34 37 38 35 34 34 36 35 33 33 33 40 39 37 35 36 36 36 36
37 39 33 31 29 31 32 34 36 38 40 42 40 38 38 40 44 46 46 44 41 38 35 35 33 33 32 35 35 31 33 35 35 34 36 30 38 35 33 37 36 35 36 35 35

GFSSW_sfc_temp_165.txt.gz
Temp
61 61 61 61 61 60 60 60 59 59 60 60 60 60 61 60 59 70 69 71 71 66 68 74 76 74 74 72 72 69 65 59 60 61 66 71 71 72 70 66 60 61 60 62 65
62 62 62 61 60 60 60 60 59 59 60 60 60 60 60 59 62 69 71 68 68 68 74 72 71 72 70 70 69 68 62 62 66 67 68 70 71 71 69 64 59 58 61 63 64
62 62 62 61 61 60 60 59 59 59 59 59 59 60 59 59 66 70 69 68 68 70 73 72 71 71 67 69 66 63 64 64 67 69 71 70 69 70 68 63 61 57 57 58 59
61 61 61 61 61 60 60 59 59 59 59 59 60 60 59 64 58 71 69 69 69 73 74 71 71 67 63 63 65 63 64 65 68 68 68 69 71 55 54 53 60 59 58 58 56
60 60 60 61 61 60 59 59 59 59 58 59 59 60 63 61 63 73 69 71 74 74 70 69 67 66 62 63 64 63 63 66 67 66 67 67 58 54 51 56 58 58 56 54 54
59 59 59 60 60 60 59 58 58 58 58 59 59 59 61 55 73 70 70 72 73 73 71 71 68 68 64 63 62 63 63 64 66 67 67 62 55 59 53 57 55 54 53 53 53
59 59 59 59 59 59 59 58 58 57 58 59 59 59 55 59 71 69 70 71 72 72 69 72 72 69 66 62 64 63 60 62 64 65 66 67 57 51 55 56 53 52 51 51 51
59 58 58 58 58 58 58 58 57 58 58 58 59 58 53 70 70 69 70 70 71 72 71 73 73 68 66 65 62 59 58 56 61 63 64 66 54 49 54 54 50 50 50 50 49
58 58 57 57 57 57 57 57 57 58 58 58 57 57 54 69 66 71 71 69 71 72 72 73 69 61 63 58 56 55 53 52 57 62 62 61 49 51 54 53 50 50 49 49 49
58 58 57 56 56 55 55 56 57 57 59 61 60 54 60 64 69 70 69 71 68 67 66 64 60 57 55 56 48 50 50 51 53 59 60 52 46 49 52 51 49 49 49 48 48
58 59 57 56 56 55 56 55 54 54 55 56 56 55 61 68 70 69 69 68 67 63 57 57 55 51 55 54 55 54 52 51 56 58 57 52 47 47 49 49 47 48 48 48 48
57 58 57 56 56 55 57 54 57 58 50 57 57 56 61 65 59 64 70 62 59 54 56 54 49 56 55 54 53 52 50 51 55 55 56 48 45 46 47 48 49 49 48 48 48
57 57 58 56 55 54 55 56 59 58 48 53 57 58 60 62 57 60 66 60 57 52 52 50 53 53 54 51 50 51 49 49 52 53 54 52 43 42 46 48 48 49 50 50 50
56 57 55 54 53 52 52 60 60 58 43 48 51 56 58 60 53 66 68 63 55 53 51 52 56 53 51 50 52 46 53 53 51 50 47 50 45 42 43 44 45 47 48 49 49
56 55 54 56 51 51 55 57 58 55 28 52 51 64 59 57 58 57 65 62 53 51 53 51 50 49 49 51 53 51 53 51 49 47 45 46 46 44 42 39 42 45 47 48 50
56 55 54 53 52 56 56 56 55 39 29 47 53 51 50 54 56 58 59 63 60 53 52 52 56 54 54 51 54 51 49 46 45 45 39 45 47 47 39 44 44 45 47 48 49
55 55 53 55 51 54 55 50 37 31 51 46 47 50 49 48 51 52 51 51 49 44 43 48 50 55 55 49 51 51 48 40 37 37 38 41 41 49 46 46 48 45 47 49 49
54 53 53 53 54 54 51 42 30 41 44 51 50 48 45 48 49 49 48 46 52 49 44 42 40 50 53 53 48 46 49 40 31 33 38 40 39 47 46 47 49 50 50 48 48
52 50 49 51 53 52 45 33 35 38 46 47 49 45 44 48 49 48 45 46 51 51 45 40 42 50 51 52 54 45 41 49 37 36 36 42 44 44 44 42 44 45 46 47 48
46 46 47 51 51 48 38 35 38 49 50 50 41 44 40 44 45 46 44 49 50 53 55 48 40 47 49 53 51 49 51 40 39 30 30 37 37 44 39 41 42 44 45 47 47
45 39 45 51 50 41 32 34 42 48 51 44 43 43 44 43 44 42 46 50 52 51 55 49 44 41 47 45 44 43 42 40 42 38 34 32 41 47 47 44 42 45 46 47 47
42 33 45 50 35 36 33 39 45 46 50 47 47 47 45 45 43 43 43 50 54 51 47 50 42 35 41 48 50 47 43 43 35 31 33 34 41 46 47 47 47 46 47 48 48
35 33 42 45 30 31 39 40 42 43 45 45 44 48 48 45 39 44 46 49 52 51 47 48 38 32 38 42 44 42 43 43 40 37 34 33 41 44 44 44 47 47 47 46 46
35 30 33 37 37 35 34 36 35 44 44 47 45 47 43 41 45 40 42 46 47 47 48 49 39 39 34 40 42 38 40 42 43 34 40 39 44 41 42 43 44 45 46 46 44
33 31 37 29 31 34 37 38 36 36 43 45 42 42 40 36 39 39 41 40 44 44 44 42 34 39 42 42 43 41 43 40 40 44 37 44 42 48 47 44 46 47 45 43 42
31 32 33 33 37 34 34 33 35 39 40 38 36 41 42 36 36 33 34 35 35 40 35 38 31 33 32 39 41 38 41 42 42 44 43 45 42 49 51 48 44 43 43 42 41
35 39 37 33 32 32 33 34 34 37 42 45 42 39 39 42 46 47 46 44 41 38 34 33 34 34 29 38 37 31 41 39 40 43 42 37 46 46 42 44 44 44 43 42 42

GFSSW_sfc_temp_171.txt.gz
Temp
63 63 63 63 62 62 61 61 60 60 60 61 61 61 61 61 63 80 85 77 78 67 68 92 93 92 93 90 92 93 80 78 80 79 81 86 82 86 89 82 78 79 80 78 78
63 63 63 63 62 61 61 61 60 60 60 60 60 60 61 60 80 87 72 71 70 69 89 86 86 88 87 87 88 85 81 81 87 87 83 85 84 83 81 77 73 72 76 78 81
63 63 63 63 62 62 61 60 60 60 60 60 60 60 60 64 79 84 69 71 70 72 90 89 88 86 82 86 86 85 79 84 83 86 87 85 84 87 84 79 78 73 73 77 78
62 62 62 62 62 62 61 60 60 60 60 60 60 60 60 78 69 86 71 71 70 84 89 87 86 81 80 79 85 77 82 84 85 83 83 83 86 80 83 80 84 80 78 77 76
61 61 62 62 62 61 60 60 60 60 60 60 60 60 71 77 80 87 73 75 88 88 85 83 80 80 76 81 81 78 81 82 83 82 83 84 81 79 75 79 80 78 76 74 72
59 60 60 61 61 61 60 60 59 59 59 60 60 58 75 68 89 89 87 87 88 87 85 85 81 83 78 78 77 80 80 81 83 82 82 78 76 78 73 76 73 73 71 72 72
59 58 59 59 60 60 60 60 59 59 59 60 60 70 70 72 90 91 88 86 87 86 82 85 85 80 81 76 82 79 73 78 80 82 80 81 74 72 75 74 71 70 71 70 71
59 58 58 58 58 58 58 58 58 59 59 60 60 69 67 88 90 86 89 86 87 88 85 85 85 80 78 81 77 73 74 68 80 80 81 78 69 77 75 72 70 69 69 69 69
58 57 57 57 56 56 56 56 58 58 59 60 67 70 68 76 80 86 86 81 83 84 84 83 81 76 77 69 68 72 65 69 72 81 79 74 71 73 75 73 71 70 69 69 67
59 58 58 57 56 55 55 56 60 60 65 74 74 63 73 73 82 83 87 83 79 78 75 74 74 69 71 68 58 65 67 70 71 75 76 73 72 70 72 72 72 71 71 69 66
59 58 58 58 57 56 60 62 59 61 68 68 70 71 75 81 83 81 84 80 79 75 67 72 65 62 69 71 72 71 68 68 75 77 72 71 73 70 71 71 71 71 71 69 68
58 58 58 58 57 56 63 61 64 64 58 72 73 73 78 81 69 78 83 72 72 65 72 68 61 71 74 73 69 69 65 66 74 75 68 71 71 76 71 70 72 72 71 70 69
57 58 58 58 56 59 63 65 74 72 58 65 72 72 74 78 69 72 80 74 69 66 68 64 68 70 69 67 63 66 64 66 67 72 71 69 67 71 72 72 73 73 74 72 69
57 57 56 55 55 71 65 74 73 70 53 60 68 72 75 76 68 80 81 76 70 64 68 67 73 69 65 64 67 60 71 68 67 65 58 71 56 71 70 67 68 70 70 70 69
56 56 55 54 65 65 68 74 73 67 35 65 69 78 74 67 70 72 81 76 66 67 67 65 65 65 63 65 69 63 68 66 66 63 63 64 58 67 72 63 65 68 69 70 69
55 56 54 59 64 67 71 70 64 47 35 58 66 63 62 65 67 72 69 77 77 67 70 67 75 70 69 70 70 69 64 64 64 62 51 60 60 63 68 67 68 69 69 68 67
55 55 55 63 59 69 65 58 41 35 60 57 59 63 62 62 62 65 63 62 60 53 55 63 64 69 69 63 68 65 59 50 47 49 48 65 60 63 68 71 72 71 68 67 67
54 54 57 62 64 63 58 44 30 47 52 66 61 61 56 63 63 63 60 59 63 64 61 55 52 64 68 63 61 61 60 51 43 47 53 66 53 63 71 71 69 72 71 67 67
54 58 56 62 62 58 46 33 38 48 57 57 59 53 56 59 62 61 59 59 65 64 55 54 58 69 69 67 67 61 54 64 52 55 48 56 64 65 67 66 65 66 67 65 66
53 54 56 63 60 53 39 34 44 55 58 58 46 54 50 53 53 55 58 64 62 68 67 58 49 61 65 65 67 63 67 50 52 38 39 51 54 57 59 60 62 63 64 65 66
50 42 58 63 57 44 33 36 48 56 58 52 50 48 50 49 53 50 49 60 64 63 65 60 52 50 57 55 56 56 53 56 57 52 43 43 52 68 66 65 63 64 65 65 65
47 34 57 56 38 38 34 45 50 53 58 54 53 51 50 51 50 47 45 55 60 60 55 60 52 45 49 61 62 57 57 54 42 43 49 47 49 67 66 67 66 65 65 67 65
40 38 55 49 32 33 44 46 50 51 51 51 49 51 54 51 44 45 49 55 59 53 53 54 42 35 45 54 56 51 56 56 53 49 41 38 46 66 67 65 65 64 64 64 63
38 33 39 41 39 34 38 43 44 53 51 53 50 49 47 46 51 47 51 57 56 54 47 49 43 39 40 50 53 44 52 55 52 42 45 46 50 58 60 60 62 63 63 63 63
38 35 48 33 35 40 42 41 40 43 52 53 46 43 43 41 45 44 49 53 51 46 48 47 35 44 49 54 54 54 51 52 50 51 43 49 50 56 59 60 62 63 64 63 62
34 36 44 45 47 45 40 38 38 42 43 46 44 48 47 41 42 39 47 48 47 46 45 43 35 36 34 45 47 45 51 54 52 53 53 51 48 61 65 66 64 64 63 62 61
47 49 40 40 43 41 42 43 42 39 43 48 49 47 47 50 54 51 48 49 46 41 38 37 36 33 31 43 43 33 41 48 51 54 53 46 54 61 60 63 63 62 63 62 62

GFSSW_sfc_temp_174.txt.gz
Temp
63 63 63 63 62 62 62 61 60 60 61 61 61 61 61 61 62 86 82 77 77 68 68 86 91 92 93 88 92 90 73 71 77 80 80 86 82 86 87 81 80 79 78 74 75
64 64 64 63 62 62 61 61 60 60 60 60 60 61 61 61 74 81 71 71 71 69 84 85 83 87 84 86 87 81 72 75 85 88 82 84 83 82 80 75 72 72 75 76 78
64 63 63 63 62 62 61 61 60 60 60 60 60 60 60 63 76 79 70 72 71 72 85 88 87 85 80 85 84 82 73 82 85 83 88 84 84 86 80 74 73 69 72 76 78
63 63 63 63 62 62 61 60 60 60 60 60 60 60 60 74 66 80 73 72 71 80 85 85 84 79 77 77 85 76 81 83 84 85 85 83 87 82 79 80 81 77 77 77 75
61 61 62 62 62 61 61 60 60 60 60 60 60 60 67 73 77 85 73 73 85 88 84 82 79 79 74 79 82 78 79 84 85 83 82 86 83 81 75 79 80 78 76 74 73
59 60 60 61 61 61 60 60 59 59 59 60 60 58 72 64 91 93 89 88 88 87 85 85 81 82 75 76 75 80 79 80 83 82 82 80 80 79 75 78 76 75 73 72 71
59 58 59 59 59 59 59 59 59 59 59 60 61 69 67 68 89 92 90 87 88 86 81 87 85 78 79 74 81 79 72 76 78 80 79 81 73 73 76 75 72 72 71 71 71
58 58 57 58 58 58 57 58 58 59 59 60 60 66 63 86 90 87 88 86 89 88 85 86 85 79 76 80 76 71 72 64 76 79 80 78 65 77 76 72 70 70 70 70 70
58 57 57 56 56 56 56 56 57 59 59 60 65 66 64 81 80 87 88 82 85 85 85 86 81 74 76 68 64 68 60 65 69 81 78 75 67 77 75 72 70 69 68 68 68
59 58 58 57 56 55 55 55 61 59 66 70 72 63 71 72 83 85 88 84 79 79 76 75 72 66 68 64 53 60 63 66 66 76 76 72 70 71 73 72 70 69 68 68 66
58 58 58 57 57 56 57 61 64 63 65 65 69 69 76 82 84 80 85 81 79 75 65 73 64 59 65 68 68 67 65 64 71 78 73 70 71 71 71 71 70 70 69 68 66
57 58 58 58 57 57 61 63 68 67 57 71 71 72 77 80 71 77 85 72 70 63 70 66 60 69 72 72 69 68 64 63 70 75 72 71 69 75 71 71 72 71 70 69 67
57 57 58 58 57 58 62 66 76 74 56 63 70 70 71 77 69 70 78 74 67 64 66 61 67 73 69 67 65 65 61 62 63 71 72 68 64 69 72 72 73 74 74 72 68
56 56 56 55 53 67 65 74 75 72 49 57 66 71 73 75 66 79 80 74 69 62 65 65 71 69 67 64 66 58 68 67 65 63 57 68 51 66 71 67 70 71 71 71 69
55 56 55 54 60 64 69 75 74 65 32 66 68 82 78 68 71 73 81 75 63 64 66 61 65 65 64 65 69 62 70 65 65 61 60 62 57 64 71 67 66 68 71 71 69
55 56 55 59 62 65 70 70 64 45 33 59 68 65 64 68 69 74 71 75 74 65 66 66 74 71 69 71 71 71 66 64 63 59 48 57 57 59 66 71 68 70 70 70 69
54 55 54 62 57 67 66 58 42 35 60 56 61 65 63 62 63 65 63 62 57 52 53 61 64 71 72 63 69 67 59 45 44 44 44 61 57 60 71 75 73 69 69 68 68
54 54 57 61 66 62 57 46 29 44 49 63 63 61 55 60 61 64 60 57 65 62 57 53 50 63 70 63 59 61 58 46 38 42 49 63 53 61 73 73 74 75 71 69 66
53 56 55 59 62 58 47 34 37 45 54 55 57 52 53 59 60 58 57 58 62 65 52 52 54 71 71 71 65 58 52 61 49 52 46 52 59 67 69 67 67 68 70 65 64
55 54 54 62 60 52 39 35 45 54 56 55 45 52 45 51 53 55 52 59 58 62 67 57 47 62 66 71 67 61 65 50 50 36 35 47 51 53 61 62 63 64 64 63 63
50 44 57 63 56 44 32 36 47 55 56 50 48 46 48 48 50 46 46 54 58 57 60 59 52 52 58 57 57 56 53 55 56 49 39 38 47 63 61 64 61 63 65 63 63
47 35 56 57 38 40 34 44 49 51 56 53 51 48 45 48 45 46 46 51 52 53 46 52 42 43 50 61 65 61 56 54 38 40 44 43 46 65 64 65 64 63 65 64 64
42 41 56 52 32 33 44 44 48 47 49 49 48 52 53 47 41 46 49 58 58 48 43 45 37 34 43 53 58 52 55 55 50 43 40 36 43 66 65 63 63 60 62 63 63
39 32 40 44 44 36 37 38 40 52 50 51 50 52 48 44 49 43 47 54 56 46 46 46 36 34 32 43 47 42 40 47 48 37 41 42 47 55 59 59 61 61 62 62 62
40 35 47 33 36 40 41 40 38 36 47 51 48 48 45 39 41 42 47 50 54 47 45 42 33 38 41 45 48 46 46 43 42 43 40 46 49 55 59 60 59 62 63 62 62
34 37 44 44 46 44 41 39 39 43 44 42 43 44 43 37 42 37 43 44 44 48 41 44 34 38 33 41 44 43 46 47 48 49 48 44 47 62 64 64 60 59 61 60 63
48 51 41 39 41 40 41 42 42 46 48 50 47 41 37 40 47 54 54 52 47 42 40 36 34 33 30 43 42 33 40 45 48 52 51 44 53 60 60 62 61 61 62 61 63

GFSSW_sfc_temp_180.txt.gz
Temp
63 63 63 62 61 61 61 61 60 60 61 61 61 61 61 61 61 72 67 68 70 68 67 76 77 76 72 67 70 68 57 50 54 57 65 72 70 70 68 64 64 65 64 66 66
63 63 63 62 61 61 61 60 60 60 60 60 60 61 61 61 60 67 72 70 69 69 75 73 71 72 66 65 68 63 54 59 65 66 65 69 70 69 65 63 60 60 65 66 65
63 63 63 62 61 61 61 60 59 60 60 60 60 60 60 59 64 70 71 68 69 69 72 73 74 69 62 62 63 59 57 63 70 71 69 68 66 67 63 59 62 57 61 63 63
61 61 61 61 61 61 60 59 59 60 60 60 60 60 60 62 56 70 72 69 69 71 73 72 70 65 61 59 63 59 67 67 69 72 71 65 63 63 60 67 67 64 64 64 62
60 60 60 60 60 60 61 59 59 59 59 60 60 60 60 59 63 79 70 71 72 75 72 71 67 64 59 63 64 61 64 68 70 71 69 69 63 63 59 65 67 66 66 64 62
58 59 59 59 60 60 59 59 58 58 58 59 60 59 58 52 77 78 75 76 74 75 73 70 68 70 66 64 60 65 65 66 68 67 69 63 61 61 61 67 66 66 63 62 61
58 58 58 58 58 58 58 58 57 58 58 59 60 62 56 58 72 76 75 74 76 77 72 74 71 66 64 62 65 67 59 62 66 63 64 68 55 58 62 66 64 64 62 61 60
58 58 57 57 57 57 57 57 57 58 58 59 59 57 53 72 70 72 74 73 78 78 76 77 73 68 64 66 65 60 56 50 64 64 67 65 53 58 63 64 61 61 61 60 60
57 57 57 57 56 56 56 56 57 58 57 58 55 55 52 72 69 75 74 72 76 76 75 81 70 63 62 54 49 50 45 49 56 65 62 60 55 60 62 64 60 59 59 59 58
57 57 57 56 56 56 55 56 58 58 61 63 63 55 61 63 72 75 75 77 72 70 69 65 59 54 52 48 41 44 46 51 51 58 60 57 57 58 62 62 60 59 58 57 57
57 57 56 56 56 55 56 54 56 52 54 54 57 58 63 72 75 71 73 72 68 64 56 60 51 47 52 53 54 54 51 49 55 62 57 56 56 59 61 61 58 56 56 56 56
56 56 56 56 56 55 55 50 55 53 46 60 61 61 66 68 60 67 73 62 61 54 58 54 49 58 60 58 56 54 51 50 56 62 59 56 54 58 60 60 59 57 57 56 54
56 56 56 55 55 54 52 55 64 58 45 54 60 60 61 65 58 61 67 63 58 54 55 50 56 63 59 57 55 54 51 51 52 58 57 54 50 50 58 61 62 61 61 59 56
55 55 55 54 52 54 51 61 62 62 37 45 55 58 63 63 55 68 71 63 57 54 57 53 61 59 57 54 56 49 57 57 54 49 42 52 38 51 54 56 59 60 59 57 56
54 55 54 54 51 50 57 60 60 54 23 54 58 68 65 59 61 62 72 62 53 54 54 50 54 55 54 56 60 54 59 56 55 48 41 46 40 46 53 52 55 58 59 57 57
54 54 54 53 53 54 58 57 54 34 23 48 62 58 55 58 59 64 63 63 62 55 56 54 62 59 57 60 59 60 56 53 50 45 39 45 44 44 51 57 57 61 61 59 58
53 53 52 54 49 55 54 50 33 24 49 48 50 54 53 52 55 56 54 51 47 42 43 51 53 59 61 53 59 57 47 36 33 33 36 49 47 50 54 61 65 60 62 60 58
52 52 51 53 53 54 50 41 24 37 41 52 51 51 46 52 52 52 52 46 54 50 45 41 39 51 58 54 52 52 51 36 29 32 36 49 40 47 59 61 61 64 65 60 56
52 45 45 49 52 52 43 31 27 38 46 45 48 44 45 48 47 47 46 47 46 48 40 38 40 53 57 58 58 50 46 52 43 40 34 38 45 55 56 56 56 58 61 56 53
41 41 43 51 51 46 37 34 39 47 49 46 38 45 39 42 43 43 44 50 47 50 52 43 34 47 53 57 57 54 55 42 42 32 31 38 38 44 48 52 53 50 52 52 54
39 35 44 50 48 40 31 32 41 49 49 43 41 39 40 39 42 41 42 48 49 50 51 44 39 39 45 46 45 46 44 48 49 45 35 33 39 48 53 58 53 52 53 52 52
36 30 43 46 36 31 31 39 44 44 48 45 44 42 39 40 38 39 40 44 52 51 42 43 39 33 37 49 53 50 45 40 31 36 33 36 42 52 50 51 53 52 54 54 53
27 28 42 45 30 27 34 39 42 41 42 41 41 44 44 39 34 40 42 49 50 47 42 42 34 28 33 40 45 40 39 38 37 33 30 30 32 52 52 52 55 50 51 54 53
36 27 30 34 37 32 33 33 34 43 41 43 42 43 40 37 41 36 39 45 47 46 49 44 36 32 27 33 40 36 40 38 34 30 32 33 37 45 48 47 50 53 52 53 53
33 31 35 20 26 30 34 34 33 33 41 44 39 39 37 31 32 33 38 39 43 45 44 40 31 34 36 37 40 39 39 40 35 34 30 36 35 40 45 49 51 54 53 55 53
32 27 30 30 36 32 34 29 32 35 36 34 34 38 38 33 32 28 34 34 34 39 39 41 29 32 29 37 36 33 36 39 39 39 35 35 35 45 48 51 52 52 54 54 53
34 37 34 31 30 30 29 33 35 37 39 41 38 35 34 37 40 41 41 40 38 35 33 32 31 30 25 36 34 28 34 38 40 41 39 32 40 49 48 50 52 54 54 54 54

GFSSW_sfc_temp_183.txt.gz
Temp
62 62 62 62 61 61 61 60 60 60 61 61 61 61 61 61 61 70 66 69 69 67 68 72 74 72 70 66 66 63 54 47 51 54 61 66 66 66 65 64 61 63 63 66 65
62 63 63 62 61 61 61 60 59 60 60 60 60 60 61 60 60 65 72 70 68 68 73 70 69 69 64 61 64 60 52 56 61 62 64 66 67 65 63 60 58 59 63 64 63
62 62 62 61 61 60 60 59 59 60 60 60 60 60 60 59 63 68 72 70 68 69 69 69 69 68 60 59 59 55 56 62 66 67 67 65 62 63 60 56 60 56 56 60 60
61 61 61 61 61 60 61 60 59 60 60 60 60 60 59 62 55 67 72 68 68 69 72 69 66 63 59 57 61 55 64 64 65 66 65 62 64 61 58 63 66 62 60 60 59
59 59 59 60 60 60 59 58 58 59 59 59 60 60 60 57 61 75 71 72 74 71 70 67 63 61 58 62 59 57 61 65 66 66 64 65 62 63 59 59 63 63 61 60 59
58 58 58 59 59 58 58 57 57 57 58 59 60 59 57 50 74 75 72 73 72 69 69 67 66 67 62 61 56 60 62 63 64 66 65 63 57 57 57 61 61 61 59 59 59
57 57 58 58 58 58 58 57 57 57 58 59 59 60 54 56 70 69 71 70 71 71 67 71 70 62 61 59 62 63 57 61 64 66 62 63 52 57 57 60 59 60 60 59 58
57 57 57 57 57 57 57 56 56 57 58 58 60 56 51 70 66 67 69 68 72 72 71 73 71 65 61 64 62 57 52 49 61 63 64 62 49 59 58 59 57 59 58 58 57
57 57 57 56 56 56 56 56 57 58 58 57 55 55 50 69 65 71 70 68 71 72 70 77 68 61 59 52 48 50 44 48 55 64 61 57 50 59 58 59 57 58 58 58 56
57 57 56 56 56 55 55 56 58 57 59 61 61 52 59 61 69 71 71 71 68 66 65 63 56 52 51 47 39 44 44 49 49 57 56 54 52 54 57 58 57 57 56 56 56
56 57 56 56 56 55 55 55 51 50 54 52 55 56 60 69 72 68 71 68 64 61 53 56 48 46 51 50 52 51 48 47 54 60 52 54 52 56 57 57 56 54 54 54 56
56 56 56 55 55 55 54 52 54 54 45 56 57 58 63 66 57 64 71 60 58 52 54 50 45 57 57 54 52 50 48 48 54 59 53 52 51 55 55 57 59 57 55 55 55
55 55 55 54 54 53 52 54 60 55 42 50 58 57 59 63 54 57 64 60 55 51 52 49 54 60 56 54 51 51 48 49 49 57 53 51 47 51 55 56 61 60 59 57 54
54 54 54 54 51 52 51 58 57 56 36 43 51 56 60 60 53 65 68 61 54 52 53 50 58 56 54 51 53 46 55 54 51 48 42 50 41 50 53 52 56 58 57 56 54
54 54 54 54 49 48 54 57 56 52 22 51 54 64 62 55 59 61 68 60 52 53 54 48 52 51 50 52 57 50 57 53 52 47 42 45 38 45 51 48 51 56 57 57 55
53 53 53 51 52 53 55 55 53 35 22 45 56 53 52 55 56 62 59 62 60 52 54 52 57 54 53 57 57 56 52 52 48 43 37 45 41 45 49 52 52 57 58 57 56
53 53 51 52 46 53 53 49 33 25 47 44 46 50 49 49 52 54 52 49 46 40 40 47 49 56 58 51 56 52 44 33 31 31 34 47 44 49 52 56 59 59 59 59 57
52 51 50 51 50 51 48 38 24 35 38 49 47 49 45 47 48 48 46 43 47 48 41 36 35 48 54 50 48 48 48 36 29 30 35 45 38 45 56 60 57 58 58 61 56
51 43 43 47 49 49 43 29 28 36 44 42 45 42 44 44 45 46 43 42 45 44 38 37 37 49 52 52 51 46 42 52 41 41 35 41 48 55 54 56 56 56 54 55 56
39 38 40 47 48 46 38 33 36 44 47 46 35 43 37 40 40 41 42 49 44 48 47 41 31 44 47 52 53 50 52 41 40 28 29 34 36 41 49 51 53 53 53 51 54
37 35 41 46 46 41 31 32 40 48 47 41 40 38 40 38 40 39 41 47 49 48 50 44 38 37 43 41 42 44 43 43 44 39 29 28 34 47 49 50 50 53 52 47 49
35 28 39 44 32 32 30 36 43 42 45 43 42 41 39 40 38 38 39 44 49 47 40 43 38 29 35 46 50 43 39 37 29 30 31 29 37 46 45 47 49 48 49 46 48
26 30 42 44 20 28 32 36 39 39 39 39 38 42 42 37 32 38 40 47 47 45 40 42 31 23 29 37 43 39 40 38 36 33 30 27 33 48 50 48 49 48 49 49 47
33 25 28 36 36 31 30 31 32 41 40 41 39 41 37 34 38 34 37 43 44 44 47 45 34 29 25 31 37 33 38 41 36 29 31 32 34 42 44 47 48 48 49 50 49
28 26 32 20 26 33 35 32 31 32 40 42 36 37 35 29 31 31 36 38 42 45 42 38 23 31 34 35 36 35 34 36 34 34 29 34 36 41 45 47 49 52 52 53 52
28 25 30 31 35 31 31 31 30 33 35 34 33 36 36 30 31 27 33 32 32 36 35 37 25 30 27 34 34 32 36 37 36 37 38 38 36 47 49 50 48 50 52 53 54
33 36 32 30 29 28 28 32 33 36 37 39 36 33 32 36 37 38 38 37 36 33 31 30 25 21 21 32 32 24 33 35 37 40 41 34 41 48 45 48 50 51 52 53 55

GFSSW_sfc_temp_186.txt.gz
Temp
62 62 62 61 61 60 60 60 60 60 60 61 61 61 61 61 60 70 66 71 69 67 67 71 71 70 65 60 61 59 51 47 51 52 56 63 63 64 64 61 61 64 62 64 65
62 62 62 61 60 60 60 60 59 59 60 60 60 60 60 60 60 65 72 70 67 68 71 68 66 66 61 59 60 56 49 54 58 58 60 64 66 63 61 59 58 59 62 63 64
62 61 61 61 60 60 61 60 60 60 60 60 60 60 60 59 64 66 71 69 68 70 67 67 66 64 58 56 56 51 52 59 62 62 59 61 59 63 59 54 61 58 58 60 62
60 60 60 61 61 60 60 59 58 59 59 59 60 59 59 62 56 69 70 69 69 67 69 68 64 60 55 53 56 51 61 62 62 62 62 57 59 59 60 62 64 62 60 61 60
58 59 59 60 60 59 58 58 58 58 58 59 59 59 59 56 61 73 70 71 71 71 67 65 61 57 53 56 57 54 59 62 64 63 61 62 59 60 57 58 61 60 60 60 60
57 58 58 58 58 58 58 57 57 57 58 59 59 59 55 49 74 72 70 70 68 66 65 65 63 63 59 57 54 57 58 60 61 63 61 61 56 56 57 59 58 59 58 59 59
57 57 57 58 58 57 58 57 57 57 57 58 59 58 53 55 68 66 67 67 67 69 65 67 67 62 58 56 59 59 53 56 60 63 61 61 52 56 55 57 56 57 58 58 58
58 57 57 57 57 57 57 56 56 57 58 58 60 58 49 69 64 65 64 64 68 69 67 68 67 63 59 61 58 54 49 44 58 60 59 58 49 59 54 56 53 56 56 57 57
57 57 57 56 56 56 56 56 56 58 58 57 54 53 49 68 63 68 67 64 69 67 65 73 65 58 57 49 45 46 41 45 53 61 57 54 47 55 53 55 53 54 55 56 55
56 56 56 56 55 55 54 55 57 57 58 60 59 50 57 59 66 68 68 68 64 64 62 60 54 50 46 45 37 40 41 45 46 55 53 49 50 56 53 53 53 54 53 54 55
56 56 56 55 55 54 54 54 53 48 51 49 51 52 57 66 69 65 69 66 62 59 52 53 47 44 47 49 49 47 45 43 50 58 50 50 49 54 54 52 50 50 51 53 55
55 55 55 55 55 54 52 50 52 54 45 54 53 54 60 64 54 62 68 58 56 50 52 48 43 55 54 52 49 47 44 44 50 57 51 49 48 53 51 52 55 54 53 54 55
55 55 54 54 54 52 49 50 56 52 43 48 53 53 54 59 52 55 61 58 54 49 50 47 51 58 54 49 48 47 44 45 45 53 49 48 46 49 53 52 57 59 58 56 54
54 54 54 53 51 49 48 54 53 52 34 42 48 53 57 57 51 62 66 59 53 51 52 48 56 54 51 48 50 42 52 51 48 45 37 47 38 49 51 51 53 57 57 56 55
53 54 53 53 47 48 52 55 54 48 22 49 51 60 58 52 54 57 63 58 51 51 54 47 50 50 48 50 55 47 54 50 48 43 40 43 36 44 50 48 52 55 56 56 56
53 53 53 50 50 52 54 53 49 34 23 42 52 50 49 52 53 58 56 59 58 52 53 52 55 53 52 55 55 55 49 47 44 40 35 42 41 43 49 52 52 53 56 57 56
52 52 50 51 44 51 51 48 33 24 44 41 42 47 46 46 49 49 49 43 41 37 38 45 49 56 57 50 55 51 43 32 30 29 33 44 41 47 53 57 58 60 54 56 57
52 51 48 49 48 48 46 40 24 34 35 46 45 46 42 44 45 46 45 39 44 43 38 35 34 45 51 50 47 47 47 36 27 29 34 42 34 42 51 54 54 58 56 55 53
50 40 40 43 46 45 41 26 29 35 43 40 43 40 42 43 42 43 42 40 44 44 36 35 37 47 49 50 49 45 41 51 39 39 33 36 43 52 56 56 54 53 54 53 52
37 36 37 43 45 42 36 31 34 42 45 44 34 40 34 37 36 36 38 42 41 45 49 38 29 42 47 49 51 49 51 38 36 28 25 31 33 36 40 42 47 47 49 50 50
36 31 39 43 44 36 25 27 36 45 45 39 37 36 37 32 35 32 34 42 45 45 47 42 35 35 42 41 40 42 39 41 42 35 29 26 30 41 40 42 42 45 49 47 46
34 25 39 47 28 32 21 33 42 39 43 40 39 38 37 37 35 36 35 40 47 46 40 44 35 27 33 45 48 43 41 36 30 29 29 29 30 44 43 45 45 48 48 47 46
27 30 39 43 23 24 31 34 37 36 37 36 35 38 38 34 30 36 39 45 45 43 38 41 32 24 29 36 42 35 35 35 34 32 28 26 29 46 49 47 50 46 46 47 47
30 23 25 34 35 28 28 30 32 39 38 38 37 38 33 30 35 31 34 42 43 43 47 44 32 29 23 31 36 33 37 39 34 27 29 30 32 40 41 43 47 49 49 48 49
27 25 30 18 23 32 33 31 31 30 36 37 33 34 31 27 30 30 33 35 39 43 40 37 26 31 33 34 35 34 34 35 32 33 28 33 32 36 42 44 47 50 51 51 51
25 23 27 28 32 32 31 31 30 31 31 30 30 36 35 29 31 26 31 31 31 34 33 35 22 28 26 33 33 31 34 34 35 35 36 36 34 46 48 49 47 48 49 49 51
30 32 29 28 28 27 29 32 29 32 36 37 35 33 32 35 36 37 36 35 34 32 30 28 23 19 19 30 29 23 30 33 35 38 37 31 39 46 46 47 48 49 49 50 51